Wetterdaten: Samstag, 01.02.2014
Datum Zeit Temp. Aussen +5cm Feuchte Auss Luftdruck Regen Sonnenschein Regendauer UV Solar Windben
01.02.2014 00:00 3,8 C 2,2 C 83 % 1001,3 hPa 0,0 l/m 0 min 0 min 0,0 UV-I 0 W/m 41,2 km/h (6 Bft)
01.02.2014 00:02 3,8 C 2,2 C 83 % 1001,3 hPa 0,0 l/m 0 min 0 min 0,0 UV-I 0 W/m 18,0 km/h (3 Bft)
01.02.2014 00:04 3,8 C 2,2 C 83 % 1001,3 hPa 0,0 l/m 0 min 0 min 0,0 UV-I 0 W/m 25,7 km/h (4 Bft)
01.02.2014 00:06 3,8 C 2,2 C 83 % 1001,2 hPa 0,0 l/m 0 min 0 min 0,0 UV-I 0 W/m 23,2 km/h (4 Bft)
01.02.2014 00:08 3,8 C 2,2 C 83 % 1001,1 hPa 0,0 l/m 0 min 0 min 0,0 UV-I 0 W/m 20,6 km/h (4 Bft)
01.02.2014 00:10 3,8 C 2,2 C 83 % 1001,0 hPa 0,0 l/m 0 min 0 min 0,0 UV-I 0 W/m 15,4 km/h (3 Bft)
01.02.2014 00:12 3,8 C 2,2 C 83 % 1001,0 hPa 0,0 l/m 0 min 0 min 0,0 UV-I 0 W/m 18,0 km/h (3 Bft)
01.02.2014 00:14 3,8 C 2,2 C 83 % 1000,9 hPa 0,0 l/m 0 min 0 min 0,0 UV-I 0 W/m 30,9 km/h (5 Bft)
01.02.2014 00:16 3,8 C 2,2 C 83 % 1000,9 hPa 0,0 l/m 0 min 0 min 0,0 UV-I 0 W/m 28,3 km/h (4 Bft)
01.02.2014 00:18 3,8 C 2,2 C 83 % 1000,8 hPa 0,0 l/m 0 min 0 min 0,0 UV-I 0 W/m 23,2 km/h (4 Bft)
01.02.2014 00:20 3,8 C 2,2 C 83 % 1000,9 hPa 0,0 l/m 0 min 0 min 0,0 UV-I 0 W/m 25,7 km/h (4 Bft)
01.02.2014 00:22 3,8 C 2,2 C 83 % 1000,9 hPa 0,0 l/m 0 min 0 min 0,0 UV-I 0 W/m 33,5 km/h (5 Bft)
01.02.2014 00:24 3,7 C 2,2 C 84 % 1000,9 hPa 0,0 l/m 0 min 0 min 0,0 UV-I 0 W/m 30,9 km/h (5 Bft)
01.02.2014 00:26 3,7 C 2,2 C 84 % 1000,9 hPa 0,0 l/m 0 min 0 min 0,0 UV-I 0 W/m 23,2 km/h (4 Bft)
01.02.2014 00:28 3,7 C 2,2 C 84 % 1000,8 hPa 0,0 l/m 0 min 0 min 0,0 UV-I 0 W/m 23,2 km/h (4 Bft)
01.02.2014 00:30 3,8 C 2,2 C 84 % 1000,9 hPa 0,0 l/m 0 min 0 min 0,0 UV-I 0 W/m 23,2 km/h (4 Bft)
01.02.2014 00:32 3,7 C 2,2 C 84 % 1000,8 hPa 0,0 l/m 0 min 0 min 0,0 UV-I 0 W/m 28,3 km/h (4 Bft)
01.02.2014 00:34 3,8 C 2,2 C 84 % 1000,8 hPa 0,0 l/m 0 min 0 min 0,0 UV-I 0 W/m 23,2 km/h (4 Bft)
01.02.2014 00:36 3,7 C 2,2 C 84 % 1000,8 hPa 0,0 l/m 0 min 0 min 0,0 UV-I 0 W/m 20,6 km/h (4 Bft)
01.02.2014 00:38 3,7 C 2,2 C 84 % 1000,8 hPa 0,0 l/m 0 min 0 min 0,0 UV-I 0 W/m 23,2 km/h (4 Bft)
01.02.2014 00:40 3,7 C 2,2 C 84 % 1000,9 hPa 0,0 l/m 0 min 0 min 0,0 UV-I 0 W/m 25,7 km/h (4 Bft)
01.02.2014 00:42 3,7 C 2,2 C 84 % 1000,7 hPa 0,0 l/m 0 min 0 min 0,0 UV-I 0 W/m 30,9 km/h (5 Bft)
01.02.2014 00:44 3,7 C 2,2 C 84 % 1000,7 hPa 0,0 l/m 0 min 0 min 0,0 UV-I 0 W/m 28,3 km/h (4 Bft)
01.02.2014 00:46 3,7 C 2,2 C 84 % 1000,6 hPa 0,0 l/m 0 min 0 min 0,0 UV-I 0 W/m 23,2 km/h (4 Bft)
01.02.2014 00:48 3,7 C 2,2 C 84 % 1000,6 hPa 0,0 l/m 0 min 0 min 0,0 UV-I 0 W/m 20,6 km/h (4 Bft)
01.02.2014 00:50 3,7 C 2,2 C 84 % 1000,6 hPa 0,0 l/m 0 min 0 min 0,0 UV-I 0 W/m 25,7 km/h (4 Bft)
01.02.2014 00:52 3,7 C 2,2 C 84 % 1000,6 hPa 0,0 l/m 0 min 0 min 0,0 UV-I 0 W/m 25,7 km/h (4 Bft)
01.02.2014 00:54 3,7 C 2,2 C 84 % 1000,6 hPa 0,0 l/m 0 min 0 min 0,0 UV-I 0 W/m 28,3 km/h (4 Bft)
01.02.2014 00:56 3,7 C 2,2 C 84 % 1000,5 hPa 0,0 l/m 0 min 0 min 0,0 UV-I 0 W/m 23,2 km/h (4 Bft)
01.02.2014 00:58 3,7 C 2,2 C 84 % 1000,5 hPa 0,0 l/m 0 min 0 min 0,0 UV-I 0 W/m 28,3 km/h (4 Bft)
01.02.2014 01:00 3,7 C 2,2 C 84 % 1000,5 hPa 0,0 l/m 0 min 0 min 0,0 UV-I 0 W/m 23,2 km/h (4 Bft)
01.02.2014 01:02 3,7 C 2,2 C 84 % 1000,4 hPa 0,0 l/m 0 min 0 min 0,0 UV-I 0 W/m 30,9 km/h (5 Bft)
01.02.2014 01:04 3,7 C 2,2 C 84 % 1000,5 hPa 0,0 l/m 0 min 0 min 0,0 UV-I 0 W/m 33,5 km/h (5 Bft)
01.02.2014 01:06 3,7 C 2,2 C 84 % 1000,3 hPa 0,0 l/m 0 min 0 min 0,0 UV-I 0 W/m 18,0 km/h (3 Bft)
01.02.2014 01:08 3,7 C 2,2 C 84 % 1000,2 hPa 0,0 l/m 0 min 0 min 0,0 UV-I 0 W/m 25,7 km/h (4 Bft)
01.02.2014 01:10 3,7 C 2,2 C 84 % 1000,1 hPa 0,0 l/m 0 min 0 min 0,0 UV-I 0 W/m 23,2 km/h (4 Bft)
01.02.2014 01:12 3,7 C 2,2 C 84 % 1000,1 hPa 0,0 l/m 0 min 0 min 0,0 UV-I 0 W/m 23,2 km/h (4 Bft)
01.02.2014 01:14 3,7 C 2,2 C 84 % 1000,0 hPa 0,0 l/m 0 min 0 min 0,0 UV-I 0 W/m 23,2 km/h (4 Bft)
01.02.2014 01:16 3,7 C 2,2 C 84 % 1000,0 hPa 0,0 l/m 0 min 0 min 0,0 UV-I 0 W/m 25,7 km/h (4 Bft)
01.02.2014 01:18 3,8 C 2,8 C 84 % 1000,0 hPa 0,0 l/m 0 min 0 min 0,0 UV-I 0 W/m 36,0 km/h (5 Bft)
01.02.2014 01:20 3,8 C 2,8 C 84 % 999,9 hPa 0,0 l/m 0 min 0 min 0,0 UV-I 0 W/m 36,0 km/h (5 Bft)
01.02.2014 01:22 3,8 C 2,8 C 84 % 1000,0 hPa 0,0 l/m 0 min 0 min 0,0 UV-I 0 W/m 23,2 km/h (4 Bft)
01.02.2014 01:24 3,8 C 2,8 C 84 % 999,9 hPa 0,0 l/m 0 min 0 min 0,0 UV-I 0 W/m 33,5 km/h (5 Bft)
01.02.2014 01:26 3,8 C 2,8 C 84 % 999,8 hPa 0,0 l/m 0 min 0 min 0,0 UV-I 0 W/m 25,7 km/h (4 Bft)
01.02.2014 01:28 3,8 C 2,8 C 84 % 999,8 hPa 0,0 l/m 0 min 0 min 0,0 UV-I 0 W/m 20,6 km/h (4 Bft)
01.02.2014 01:30 3,8 C 2,8 C 84 % 999,8 hPa 0,0 l/m 0 min 0 min 0,0 UV-I 0 W/m 25,7 km/h (4 Bft)
01.02.2014 01:32 3,8 C 2,8 C 84 % 999,8 hPa 0,0 l/m 0 min 0 min 0,0 UV-I 0 W/m 30,9 km/h (5 Bft)
01.02.2014 01:34 3,9 C 2,8 C 84 % 999,7 hPa 0,0 l/m 0 min 0 min 0,0 UV-I 0 W/m 20,6 km/h (4 Bft)
01.02.2014 01:36 3,9 C 2,8 C 84 % 999,8 hPa 0,0 l/m 0 min 0 min 0,0 UV-I 0 W/m 23,2 km/h (4 Bft)
01.02.2014 01:38 3,9 C 2,8 C 84 % 999,7 hPa 0,0 l/m 0 min 0 min 0,0 UV-I 0 W/m 20,6 km/h (4 Bft)
01.02.2014 01:40 3,9 C 2,8 C 84 % 999,7 hPa 0,0 l/m 0 min 0 min 0,0 UV-I 0 W/m 28,3 km/h (4 Bft)
01.02.2014 01:42 3,9 C 2,8 C 84 % 999,6 hPa 0,0 l/m 0 min 0 min 0,0 UV-I 0 W/m 25,7 km/h (4 Bft)
01.02.2014 01:44 3,9 C 2,8 C 84 % 999,5 hPa 0,0 l/m 0 min 0 min 0,0 UV-I 0 W/m 20,6 km/h (4 Bft)
01.02.2014 01:46 3,9 C 2,8 C 85 % 999,5 hPa 0,0 l/m 0 min 0 min 0,0 UV-I 0 W/m 25,7 km/h (4 Bft)
01.02.2014 01:48 3,9 C 2,8 C 85 % 999,4 hPa 0,0 l/m 0 min 0 min 0,0 UV-I 0 W/m 23,2 km/h (4 Bft)
01.02.2014 01:50 3,9 C 2,8 C 85 % 999,3 hPa 0,0 l/m 0 min 0 min 0,0 UV-I 0 W/m 38,6 km/h (5 Bft)
01.02.2014 01:52 3,9 C 2,8 C 85 % 999,3 hPa 0,0 l/m 0 min 0 min 0,0 UV-I 0 W/m 38,6 km/h (5 Bft)
01.02.2014 01:54 3,9 C 2,8 C 84 % 999,2 hPa 0,0 l/m 0 min 0 min 0,0 UV-I 0 W/m 30,9 km/h (5 Bft)
01.02.2014 01:56 3,9 C 2,8 C 84 % 999,1 hPa 0,0 l/m 0 min 0 min 0,0 UV-I 0 W/m 30,9 km/h (5 Bft)
01.02.2014 01:58 4,0 C 2,8 C 84 % 999,1 hPa 0,0 l/m 0 min 0 min 0,0 UV-I 0 W/m 33,5 km/h (5 Bft)
01.02.2014 02:00 4,0 C 2,8 C 84 % 999,1 hPa 0,0 l/m 0 min 0 min 0,0 UV-I 0 W/m 33,5 km/h (5 Bft)
01.02.2014 02:02 4,1 C 2,8 C 84 % 999,2 hPa 0,0 l/m 0 min 0 min 0,0 UV-I 0 W/m 38,6 km/h (5 Bft)
01.02.2014 02:04 4,1 C 2,8 C 84 % 999,1 hPa 0,0 l/m 0 min 0 min 0,0 UV-I 0 W/m 28,3 km/h (4 Bft)
01.02.2014 02:06 4,1 C 2,8 C 84 % 999,1 hPa 0,0 l/m 0 min 0 min 0,0 UV-I 0 W/m 20,6 km/h (4 Bft)
01.02.2014 02:08 4,1 C 2,8 C 84 % 999,1 hPa 0,0 l/m 0 min 0 min 0,0 UV-I 0 W/m 25,7 km/h (4 Bft)
01.02.2014 02:10 4,1 C 2,8 C 84 % 999,1 hPa 0,0 l/m 0 min 0 min 0,0 UV-I 0 W/m 30,9 km/h (5 Bft)
01.02.2014 02:12 4,1 C 2,8 C 84 % 999,0 hPa 0,0 l/m 0 min 0 min 0,0 UV-I 0 W/m 18,0 km/h (3 Bft)
01.02.2014 02:14 4,1 C 2,8 C 84 % 999,0 hPa 0,0 l/m 0 min 0 min 0,0 UV-I 0 W/m 28,3 km/h (4 Bft)
01.02.2014 02:16 4,1 C 2,8 C 84 % 999,0 hPa 0,0 l/m 0 min 0 min 0,0 UV-I 0 W/m 23,2 km/h (4 Bft)
01.02.2014 02:18 4,1 C 2,8 C 84 % 998,8 hPa 0,0 l/m 0 min 0 min 0,0 UV-I 0 W/m 23,2 km/h (4 Bft)
01.02.2014 02:20 4,1 C 2,8 C 84 % 998,7 hPa 0,0 l/m 0 min 0 min 0,0 UV-I 0 W/m 28,3 km/h (4 Bft)
01.02.2014 02:22 4,1 C 2,8 C 84 % 998,8 hPa 0,0 l/m 0 min 0 min 0,0 UV-I 0 W/m 25,7 km/h (4 Bft)
01.02.2014 02:24 4,1 C 2,8 C 84 % 998,7 hPa 0,0 l/m 0 min 0 min 0,0 UV-I 0 W/m 18,0 km/h (3 Bft)
01.02.2014 02:26 4,2 C 2,8 C 84 % 998,7 hPa 0,0 l/m 0 min 0 min 0,0 UV-I 0 W/m 30,9 km/h (5 Bft)
01.02.2014 02:28 4,2 C 2,8 C 84 % 998,6 hPa 0,0 l/m 0 min 0 min 0,0 UV-I 0 W/m 25,7 km/h (4 Bft)
01.02.2014 02:30 4,2 C 2,8 C 84 % 998,5 hPa 0,0 l/m 0 min 0 min 0,0 UV-I 0 W/m 23,2 km/h (4 Bft)
01.02.2014 02:32 4,2 C 2,8 C 84 % 998,4 hPa 0,0 l/m 0 min 0 min 0,0 UV-I 0 W/m 28,3 km/h (4 Bft)
01.02.2014 02:34 4,2 C 2,8 C 84 % 998,5 hPa 0,0 l/m 0 min 0 min 0,0 UV-I 0 W/m 25,7 km/h (4 Bft)
01.02.2014 02:36 4,2 C 2,8 C 84 % 998,3 hPa 0,0 l/m 0 min 0 min 0,0 UV-I 0 W/m 28,3 km/h (4 Bft)
01.02.2014 02:38 4,2 C 2,8 C 84 % 998,2 hPa 0,0 l/m 0 min 0 min 0,0 UV-I 0 W/m 36,0 km/h (5 Bft)
01.02.2014 02:40 4,2 C 2,8 C 84 % 998,0 hPa 0,0 l/m 0 min 0 min 0,0 UV-I 0 W/m 20,6 km/h (4 Bft)
01.02.2014 02:42 4,2 C 2,8 C 84 % 998,1 hPa 0,0 l/m 0 min 0 min 0,0 UV-I 0 W/m 28,3 km/h (4 Bft)
01.02.2014 02:44 4,2 C 2,8 C 84 % 997,9 hPa 0,0 l/m 0 min 0 min 0,0 UV-I 0 W/m 20,6 km/h (4 Bft)
01.02.2014 02:46 4,2 C 2,8 C 84 % 997,9 hPa 0,0 l/m 0 min 0 min 0,0 UV-I 0 W/m 36,0 km/h (5 Bft)
01.02.2014 02:48 4,2 C 2,8 C 84 % 997,9 hPa 0,0 l/m 0 min 0 min 0,0 UV-I 0 W/m 20,6 km/h (4 Bft)
01.02.2014 02:50 4,2 C 2,8 C 84 % 997,9 hPa 0,0 l/m 0 min 0 min 0,0 UV-I 0 W/m 23,2 km/h (4 Bft)
01.02.2014 02:52 4,2 C 2,8 C 84 % 997,9 hPa 0,0 l/m 0 min 0 min 0,0 UV-I 0 W/m 30,9 km/h (5 Bft)
01.02.2014 02:54 4,2 C 2,8 C 84 % 997,9 hPa 0,0 l/m 0 min 0 min 0,0 UV-I 0 W/m 25,7 km/h (4 Bft)
01.02.2014 02:56 4,2 C 2,8 C 84 % 997,7 hPa 0,0 l/m 0 min 0 min 0,0 UV-I 0 W/m 25,7 km/h (4 Bft)
01.02.2014 02:58 4,2 C 2,8 C 84 % 997,7 hPa 0,0 l/m 0 min 0 min 0,0 UV-I 0 W/m 23,2 km/h (4 Bft)
01.02.2014 03:00 4,2 C 2,8 C 84 % 997,7 hPa 0,0 l/m 0 min 0 min 0,0 UV-I 0 W/m 25,7 km/h (4 Bft)
01.02.2014 03:02 4,2 C 2,8 C 84 % 997,7 hPa 0,0 l/m 0 min 0 min 0,0 UV-I 0 W/m 23,2 km/h (4 Bft)
01.02.2014 03:04 4,2 C 2,8 C 84 % 997,7 hPa 0,0 l/m 0 min 0 min 0,0 UV-I 0 W/m 28,3 km/h (4 Bft)
01.02.2014 03:06 4,2 C 2,8 C 84 % 997,6 hPa 0,0 l/m 0 min 0 min 0,0 UV-I 0 W/m 20,6 km/h (4 Bft)
01.02.2014 03:08 4,2 C 2,8 C 84 % 997,6 hPa 0,0 l/m 0 min 0 min 0,0 UV-I 0 W/m 33,5 km/h (5 Bft)
01.02.2014 03:10 4,2 C 2,8 C 84 % 997,6 hPa 0,0 l/m 0 min 0 min 0,0 UV-I 0 W/m 25,7 km/h (4 Bft)
01.02.2014 03:12 4,2 C 2,8 C 84 % 997,5 hPa 0,0 l/m 0 min 0 min 0,0 UV-I 0 W/m 33,5 km/h (5 Bft)
01.02.2014 03:14 4,2 C 2,8 C 84 % 997,6 hPa 0,0 l/m 0 min 0 min 0,0 UV-I 0 W/m 33,5 km/h (5 Bft)
01.02.2014 03:16 4,2 C 2,8 C 84 % 997,5 hPa 0,0 l/m 0 min 0 min 0,0 UV-I 0 W/m 33,5 km/h (5 Bft)
01.02.2014 03:18 4,2 C 2,8 C 84 % 997,4 hPa 0,0 l/m 0 min 0 min 0,0 UV-I 0 W/m 33,5 km/h (5 Bft)
01.02.2014 03:20 4,2 C 2,8 C 84 % 997,3 hPa 0,0 l/m 0 min 0 min 0,0 UV-I 0 W/m 30,9 km/h (5 Bft)
01.02.2014 03:22 4,3 C 2,8 C 84 % 997,4 hPa 0,0 l/m 0 min 0 min 0,0 UV-I 0 W/m 33,5 km/h (5 Bft)
01.02.2014 03:24 4,3 C 2,8 C 84 % 997,3 hPa 0,0 l/m 0 min 0 min 0,0 UV-I 0 W/m 41,2 km/h (6 Bft)
01.02.2014 03:26 4,3 C 2,8 C 84 % 997,3 hPa 0,0 l/m 0 min 0 min 0,0 UV-I 0 W/m 28,3 km/h (4 Bft)
01.02.2014 03:28 4,3 C 2,8 C 84 % 997,2 hPa 0,0 l/m 0 min 0 min 0,0 UV-I 0 W/m 36,0 km/h (5 Bft)
01.02.2014 03:30 4,3 C 2,8 C 84 % 997,2 hPa 0,0 l/m 0 min 0 min 0,0 UV-I 0 W/m 25,7 km/h (4 Bft)
01.02.2014 03:32 4,3 C 2,8 C 84 % 997,1 hPa 0,0 l/m 0 min 0 min 0,0 UV-I 0 W/m 25,7 km/h (4 Bft)
01.02.2014 03:34 4,3 C 2,8 C 84 % 996,9 hPa 0,0 l/m 0 min 0 min 0,0 UV-I 0 W/m 23,2 km/h (4 Bft)
01.02.2014 03:36 4,3 C 2,8 C 84 % 996,9 hPa 0,0 l/m 0 min 0 min 0,0 UV-I 0 W/m 23,2 km/h (4 Bft)
01.02.2014 03:38 4,3 C 2,8 C 84 % 997,0 hPa 0,0 l/m 0 min 0 min 0,0 UV-I 0 W/m 28,3 km/h (4 Bft)
01.02.2014 03:40 4,3 C 2,8 C 84 % 997,0 hPa 0,0 l/m 0 min 0 min 0,0 UV-I 0 W/m 28,3 km/h (4 Bft)
01.02.2014 03:42 4,3 C 2,8 C 84 % 996,7 hPa 0,0 l/m 0 min 0 min 0,0 UV-I 0 W/m 33,5 km/h (5 Bft)
01.02.2014 03:44 4,3 C 2,8 C 84 % 996,8 hPa 0,0 l/m 0 min 0 min 0,0 UV-I 0 W/m 36,0 km/h (5 Bft)
01.02.2014 03:46 4,3 C 2,8 C 84 % 996,8 hPa 0,0 l/m 0 min 0 min 0,0 UV-I 0 W/m 36,0 km/h (5 Bft)
01.02.2014 03:48 4,3 C 2,8 C 84 % 996,7 hPa 0,0 l/m 0 min 0 min 0,0 UV-I 0 W/m 36,0 km/h (5 Bft)
01.02.2014 03:50 4,3 C 2,8 C 84 % 996,7 hPa 0,0 l/m 0 min 0 min 0,0 UV-I 0 W/m 41,2 km/h (6 Bft)
01.02.2014 03:52 4,3 C 2,8 C 84 % 996,7 hPa 0,0 l/m 0 min 0 min 0,0 UV-I 0 W/m 33,5 km/h (5 Bft)
01.02.2014 03:54 4,3 C 2,8 C 84 % 996,7 hPa 0,0 l/m 0 min 0 min 0,0 UV-I 0 W/m 33,5 km/h (5 Bft)
01.02.2014 03:56 4,3 C 2,8 C 84 % 996,6 hPa 0,0 l/m 0 min 0 min 0,0 UV-I 0 W/m 33,5 km/h (5 Bft)
01.02.2014 03:58 4,3 C 2,8 C 84 % 996,6 hPa 0,0 l/m 0 min 0 min 0,0 UV-I 0 W/m 28,3 km/h (4 Bft)
01.02.2014 04:00 4,3 C 2,8 C 84 % 996,6 hPa 0,0 l/m 0 min 0 min 0,0 UV-I 0 W/m 23,2 km/h (4 Bft)
01.02.2014 04:02 4,3 C 2,8 C 84 % 996,6 hPa 0,0 l/m 0 min 0 min 0,0 UV-I 0 W/m 30,9 km/h (5 Bft)
01.02.2014 04:04 4,3 C 2,8 C 84 % 996,6 hPa 0,0 l/m 0 min 0 min 0,0 UV-I 0 W/m 25,7 km/h (4 Bft)
01.02.2014 04:06 4,3 C 2,8 C 84 % 996,7 hPa 0,0 l/m 0 min 0 min 0,0 UV-I 0 W/m 41,2 km/h (6 Bft)
01.02.2014 04:08 4,3 C 2,8 C 84 % 996,6 hPa 0,0 l/m 0 min 0 min 0,0 UV-I 0 W/m 33,5 km/h (5 Bft)
01.02.2014 04:10 4,3 C 2,8 C 84 % 996,6 hPa 0,0 l/m 0 min 0 min 0,0 UV-I 0 W/m 36,0 km/h (5 Bft)
01.02.2014 04:12 4,4 C 3,3 C 84 % 996,6 hPa 0,0 l/m 0 min 0 min 0,0 UV-I 0 W/m 36,0 km/h (5 Bft)
01.02.2014 04:14 4,4 C 3,3 C 84 % 996,5 hPa 0,0 l/m 0 min 0 min 0,0 UV-I 0 W/m 33,5 km/h (5 Bft)
01.02.2014 04:16 4,4 C 3,3 C 84 % 996,5 hPa 0,0 l/m 0 min 0 min 0,0 UV-I 0 W/m 25,7 km/h (4 Bft)
01.02.2014 04:18 4,4 C 3,3 C 84 % 996,5 hPa 0,0 l/m 0 min 0 min 0,0 UV-I 0 W/m 25,7 km/h (4 Bft)
01.02.2014 04:20 4,4 C 3,3 C 84 % 996,4 hPa 0,0 l/m 0 min 0 min 0,0 UV-I 0 W/m 36,0 km/h (5 Bft)
01.02.2014 04:22 4,4 C 3,3 C 84 % 996,5 hPa 0,0 l/m 0 min 0 min 0,0 UV-I 0 W/m 38,6 km/h (5 Bft)
01.02.2014 04:24 4,5 C 3,3 C 84 % 996,6 hPa 0,0 l/m 0 min 0 min 0,0 UV-I 0 W/m 41,2 km/h (6 Bft)
01.02.2014 04:26 4,5 C 3,3 C 84 % 996,3 hPa 0,0 l/m 0 min 0 min 0,0 UV-I 0 W/m 33,5 km/h (5 Bft)
01.02.2014 04:28 4,6 C 3,3 C 84 % 996,2 hPa 0,0 l/m 0 min 0 min 0,0 UV-I 0 W/m 28,3 km/h (4 Bft)
01.02.2014 04:30 4,6 C 3,3 C 83 % 996,1 hPa 0,0 l/m 0 min 0 min 0,0 UV-I 0 W/m 33,5 km/h (5 Bft)
01.02.2014 04:32 4,6 C 3,3 C 83 % 996,2 hPa 0,0 l/m 0 min 2 min 0,0 UV-I 0 W/m 30,9 km/h (5 Bft)
01.02.2014 04:34 4,6 C 3,3 C 83 % 996,2 hPa 0,0 l/m 0 min 0 min 0,0 UV-I 0 W/m 28,3 km/h (4 Bft)
01.02.2014 04:36 4,6 C 3,3 C 84 % 996,1 hPa 0,0 l/m 0 min 0 min 0,0 UV-I 0 W/m 33,5 km/h (5 Bft)
01.02.2014 04:38 4,6 C 3,3 C 84 % 996,0 hPa 0,0 l/m 0 min 0 min 0,0 UV-I 0 W/m 28,3 km/h (4 Bft)
01.02.2014 04:40 4,6 C 3,3 C 84 % 996,0 hPa 0,0 l/m 0 min 2 min 0,0 UV-I 0 W/m 30,9 km/h (5 Bft)
01.02.2014 04:42 4,7 C 3,3 C 84 % 995,9 hPa 0,0 l/m 0 min 2 min 0,0 UV-I 0 W/m 30,9 km/h (5 Bft)
01.02.2014 04:44 4,7 C 3,3 C 84 % 995,7 hPa 0,0 l/m 0 min 0 min 0,0 UV-I 0 W/m 30,9 km/h (5 Bft)
01.02.2014 04:46 4,6 C 3,3 C 84 % 995,8 hPa 0,0 l/m 0 min 0 min 0,0 UV-I 0 W/m 33,5 km/h (5 Bft)
01.02.2014 04:48 4,6 C 3,3 C 84 % 995,7 hPa 0,0 l/m 0 min 0 min 0,0 UV-I 0 W/m 25,7 km/h (4 Bft)
01.02.2014 04:50 4,7 C 3,3 C 84 % 995,7 hPa 0,0 l/m 0 min 0 min 0,0 UV-I 0 W/m 30,9 km/h (5 Bft)
01.02.2014 04:52 4,7 C 3,3 C 84 % 995,7 hPa 0,0 l/m 0 min 0 min 0,0 UV-I 0 W/m 28,3 km/h (4 Bft)
01.02.2014 04:54 4,7 C 3,3 C 84 % 995,7 hPa 0,0 l/m 0 min 0 min 0,0 UV-I 0 W/m 25,7 km/h (4 Bft)
01.02.2014 04:56 4,7 C 3,3 C 84 % 995,7 hPa 0,0 l/m 0 min 0 min 0,0 UV-I 0 W/m 28,3 km/h (4 Bft)
01.02.2014 04:58 4,7 C 3,3 C 83 % 995,8 hPa 0,0 l/m 0 min 0 min 0,0 UV-I 0 W/m 33,5 km/h (5 Bft)
01.02.2014 05:00 4,7 C 3,3 C 83 % 995,8 hPa 0,0 l/m 0 min 0 min 0,0 UV-I 0 W/m 28,3 km/h (4 Bft)
01.02.2014 05:02 4,7 C 3,3 C 83 % 995,7 hPa 0,0 l/m 0 min 0 min 0,0 UV-I 0 W/m 30,9 km/h (5 Bft)
01.02.2014 05:04 4,7 C 3,3 C 83 % 995,6 hPa 0,0 l/m 0 min 0 min 0,0 UV-I 0 W/m 25,7 km/h (4 Bft)
01.02.2014 05:06 4,7 C 3,3 C 83 % 995,7 hPa 0,0 l/m 0 min 0 min 0,0 UV-I 0 W/m 28,3 km/h (4 Bft)
01.02.2014 05:08 4,7 C 3,3 C 83 % 995,6 hPa 0,0 l/m 0 min 0 min 0,0 UV-I 0 W/m 18,0 km/h (3 Bft)
01.02.2014 05:10 4,7 C 3,3 C 83 % 995,5 hPa 0,0 l/m 0 min 0 min 0,0 UV-I 0 W/m 28,3 km/h (4 Bft)
01.02.2014 05:12 4,7 C 3,3 C 83 % 995,4 hPa 0,0 l/m 0 min 0 min 0,0 UV-I 0 W/m 23,2 km/h (4 Bft)
01.02.2014 05:14 4,7 C 3,3 C 83 % 995,3 hPa 0,0 l/m 0 min 0 min 0,0 UV-I 0 W/m 20,6 km/h (4 Bft)
01.02.2014 05:16 4,7 C 3,3 C 83 % 995,3 hPa 0,0 l/m 0 min 0 min 0,0 UV-I 0 W/m 28,3 km/h (4 Bft)
01.02.2014 05:18 4,7 C 3,3 C 83 % 995,2 hPa 0,0 l/m 0 min 0 min 0,0 UV-I 0 W/m 36,0 km/h (5 Bft)
01.02.2014 05:20 4,7 C 3,3 C 83 % 995,2 hPa 0,0 l/m 0 min 0 min 0,0 UV-I 0 W/m 43,8 km/h (6 Bft)
01.02.2014 05:22 4,7 C 3,3 C 83 % 995,1 hPa 0,0 l/m 0 min 0 min 0,0 UV-I 0 W/m 30,9 km/h (5 Bft)
01.02.2014 05:24 4,7 C 3,3 C 83 % 995,0 hPa 0,0 l/m 0 min 0 min 0,0 UV-I 0 W/m 36,0 km/h (5 Bft)
01.02.2014 05:26 4,7 C 3,3 C 83 % 995,0 hPa 0,0 l/m 0 min 0 min 0,0 UV-I 0 W/m 38,6 km/h (5 Bft)
01.02.2014 05:28 4,7 C 3,3 C 83 % 995,0 hPa 0,0 l/m 0 min 0 min 0,0 UV-I 0 W/m 41,2 km/h (6 Bft)
01.02.2014 05:30 4,7 C 3,3 C 83 % 995,0 hPa 0,0 l/m 0 min 0 min 0,0 UV-I 0 W/m 28,3 km/h (4 Bft)
01.02.2014 05:32 4,7 C 3,3 C 83 % 995,0 hPa 0,0 l/m 0 min 0 min 0,0 UV-I 0 W/m 46,3 km/h (6 Bft)
01.02.2014 05:34 4,7 C 3,3 C 83 % 995,0 hPa 0,0 l/m 0 min 0 min 0,0 UV-I 0 W/m 28,3 km/h (4 Bft)
01.02.2014 05:36 4,7 C 3,3 C 83 % 994,9 hPa 0,0 l/m 0 min 0 min 0,0 UV-I 0 W/m 30,9 km/h (5 Bft)
01.02.2014 05:38 4,7 C 3,3 C 83 % 994,9 hPa 0,0 l/m 0 min 0 min 0,0 UV-I 0 W/m 28,3 km/h (4 Bft)
01.02.2014 05:40 4,8 C 3,3 C 83 % 994,8 hPa 0,0 l/m 0 min 0 min 0,0 UV-I 0 W/m 43,8 km/h (6 Bft)
01.02.2014 05:42 4,8 C 3,3 C 83 % 994,8 hPa 0,0 l/m 0 min 0 min 0,0 UV-I 0 W/m 33,5 km/h (5 Bft)
01.02.2014 05:44 4,8 C 3,3 C 83 % 994,8 hPa 0,0 l/m 0 min 0 min 0,0 UV-I 0 W/m 28,3 km/h (4 Bft)
01.02.2014 05:46 4,8 C 3,3 C 83 % 994,7 hPa 0,0 l/m 0 min 0 min 0,0 UV-I 0 W/m 33,5 km/h (5 Bft)
01.02.2014 05:48 4,8 C 3,3 C 83 % 994,5 hPa 0,0 l/m 0 min 0 min 0,0 UV-I 0 W/m 41,2 km/h (6 Bft)
01.02.2014 05:50 4,8 C 3,3 C 82 % 994,6 hPa 0,0 l/m 0 min 0 min 0,0 UV-I 0 W/m 36,0 km/h (5 Bft)
01.02.2014 05:52 4,8 C 3,3 C 82 % 994,6 hPa 0,0 l/m 0 min 0 min 0,0 UV-I 0 W/m 36,0 km/h (5 Bft)
01.02.2014 05:54 4,8 C 3,3 C 82 % 994,5 hPa 0,0 l/m 0 min 0 min 0,0 UV-I 0 W/m 30,9 km/h (5 Bft)
01.02.2014 05:56 4,8 C 3,3 C 83 % 994,5 hPa 0,0 l/m 0 min 0 min 0,0 UV-I 0 W/m 25,7 km/h (4 Bft)
01.02.2014 05:58 4,8 C 3,3 C 83 % 994,6 hPa 0,0 l/m 0 min 0 min 0,0 UV-I 0 W/m 18,0 km/h (3 Bft)
01.02.2014 06:00 4,9 C 3,3 C 83 % 994,6 hPa 0,0 l/m 0 min 0 min 0,0 UV-I 0 W/m 36,0 km/h (5 Bft)
01.02.2014 06:02 4,8 C 3,3 C 83 % 994,6 hPa 0,0 l/m 0 min 0 min 0,0 UV-I 0 W/m 20,6 km/h (4 Bft)
01.02.2014 06:04 4,8 C 3,3 C 82 % 994,5 hPa 0,0 l/m 0 min 0 min 0,0 UV-I 0 W/m 25,7 km/h (4 Bft)
01.02.2014 06:06 4,9 C 3,3 C 82 % 994,6 hPa 0,0 l/m 0 min 0 min 0,0 UV-I 0 W/m 36,0 km/h (5 Bft)
01.02.2014 06:08 4,9 C 3,3 C 82 % 994,5 hPa 0,0 l/m 0 min 0 min 0,0 UV-I 0 W/m 25,7 km/h (4 Bft)
01.02.2014 06:10 4,9 C 3,3 C 82 % 994,5 hPa 0,0 l/m 0 min 0 min 0,0 UV-I 0 W/m 23,2 km/h (4 Bft)
01.02.2014 06:12 4,9 C 3,3 C 82 % 994,5 hPa 0,0 l/m 0 min 0 min 0,0 UV-I 0 W/m 25,7 km/h (4 Bft)
01.02.2014 06:14 4,9 C 3,3 C 82 % 994,4 hPa 0,0 l/m 0 min 0 min 0,0 UV-I 0 W/m 23,2 km/h (4 Bft)
01.02.2014 06:16 4,9 C 3,3 C 82 % 994,4 hPa 0,0 l/m 0 min 0 min 0,0 UV-I 0 W/m 23,2 km/h (4 Bft)
01.02.2014 06:18 4,9 C 3,3 C 82 % 994,4 hPa 0,0 l/m 0 min 0 min 0,0 UV-I 0 W/m 23,2 km/h (4 Bft)
01.02.2014 06:20 4,9 C 3,3 C 83 % 994,4 hPa 0,0 l/m 0 min 0 min 0,0 UV-I 0 W/m 38,6 km/h (5 Bft)
01.02.2014 06:22 4,9 C 3,3 C 83 % 994,4 hPa 0,0 l/m 0 min 0 min 0,0 UV-I 0 W/m 28,3 km/h (4 Bft)
01.02.2014 06:24 4,9 C 3,3 C 83 % 994,4 hPa 0,0 l/m 0 min 0 min 0,0 UV-I 0 W/m 23,2 km/h (4 Bft)
01.02.2014 06:26 4,9 C 3,3 C 82 % 994,4 hPa 0,0 l/m 0 min 0 min 0,0 UV-I 0 W/m 28,3 km/h (4 Bft)
01.02.2014 06:28 4,9 C 3,3 C 83 % 994,4 hPa 0,0 l/m 0 min 0 min 0,0 UV-I 0 W/m 20,6 km/h (4 Bft)
01.02.2014 06:30 4,9 C 3,3 C 83 % 994,4 hPa 0,0 l/m 0 min 0 min 0,0 UV-I 0 W/m 23,2 km/h (4 Bft)
01.02.2014 06:32 4,9 C 3,3 C 83 % 994,3 hPa 0,0 l/m 0 min 0 min 0,0 UV-I 0 W/m 25,7 km/h (4 Bft)
01.02.2014 06:34 4,9 C 3,3 C 83 % 994,3 hPa 0,0 l/m 0 min 0 min 0,0 UV-I 0 W/m 18,0 km/h (3 Bft)
01.02.2014 06:36 4,9 C 3,3 C 83 % 994,3 hPa 0,0 l/m 0 min 0 min 0,0 UV-I 0 W/m 25,7 km/h (4 Bft)
01.02.2014 06:38 5,0 C 3,9 C 82 % 994,3 hPa 0,0 l/m 0 min 0 min 0,0 UV-I 0 W/m 23,2 km/h (4 Bft)
01.02.2014 06:40 5,0 C 3,9 C 82 % 994,2 hPa 0,0 l/m 0 min 0 min 0,0 UV-I 0 W/m 18,0 km/h (3 Bft)
01.02.2014 06:42 5,1 C 3,9 C 82 % 994,2 hPa 0,0 l/m 0 min 0 min 0,0 UV-I 0 W/m 33,5 km/h (5 Bft)
01.02.2014 06:44 5,2 C 3,9 C 82 % 994,3 hPa 0,0 l/m 0 min 0 min 0,0 UV-I 0 W/m 30,9 km/h (5 Bft)
01.02.2014 06:46 5,3 C 3,9 C 82 % 994,2 hPa 0,0 l/m 0 min 0 min 0,0 UV-I 0 W/m 28,3 km/h (4 Bft)
01.02.2014 06:48 5,4 C 4,4 C 81 % 994,2 hPa 0,0 l/m 0 min 0 min 0,0 UV-I 0 W/m 30,9 km/h (5 Bft)
01.02.2014 06:50 5,6 C 4,4 C 81 % 994,0 hPa 0,0 l/m 0 min 0 min 0,0 UV-I 0 W/m 20,6 km/h (4 Bft)
01.02.2014 06:52 5,7 C 4,4 C 80 % 994,1 hPa 0,0 l/m 0 min 0 min 0,0 UV-I 0 W/m 30,9 km/h (5 Bft)
01.02.2014 06:54 5,8 C 4,4 C 79 % 994,0 hPa 0,0 l/m 0 min 0 min 0,0 UV-I 0 W/m 20,6 km/h (4 Bft)
01.02.2014 06:56 5,9 C 4,4 C 79 % 993,9 hPa 0,0 l/m 0 min 0 min 0,0 UV-I 0 W/m 25,7 km/h (4 Bft)
01.02.2014 06:58 5,9 C 4,4 C 79 % 994,0 hPa 0,0 l/m 0 min 0 min 0,0 UV-I 0 W/m 38,6 km/h (5 Bft)
01.02.2014 07:00 6,0 C 4,4 C 79 % 994,0 hPa 0,0 l/m 0 min 0 min 0,0 UV-I 0 W/m 30,9 km/h (5 Bft)
01.02.2014 07:02 6,1 C 4,4 C 79 % 993,9 hPa 0,0 l/m 0 min 0 min 0,0 UV-I 0 W/m 30,9 km/h (5 Bft)
01.02.2014 07:04 6,1 C 4,4 C 79 % 993,9 hPa 0,0 l/m 0 min 0 min 0,0 UV-I 0 W/m 38,6 km/h (5 Bft)
01.02.2014 07:06 6,1 C 4,4 C 78 % 993,9 hPa 0,0 l/m 0 min 2 min 0,0 UV-I 0 W/m 23,2 km/h (4 Bft)
01.02.2014 07:08 6,2 C 3,9 C 79 % 994,0 hPa 0,0 l/m 0 min 2 min 0,0 UV-I 0 W/m 30,9 km/h (5 Bft)
01.02.2014 07:10 6,2 C 3,9 C 79 % 993,9 hPa 0,0 l/m 0 min 2 min 0,0 UV-I 0 W/m 28,3 km/h (4 Bft)
01.02.2014 07:12 6,1 C 3,3 C 80 % 993,8 hPa 0,0 l/m 0 min 2 min 0,0 UV-I 0 W/m 28,3 km/h (4 Bft)
01.02.2014 07:14 6,1 C 3,3 C 81 % 993,9 hPa 0,0 l/m 0 min 2 min 0,0 UV-I 0 W/m 28,3 km/h (4 Bft)
01.02.2014 07:16 6,0 C 3,3 C 81 % 993,9 hPa 0,0 l/m 0 min 2 min 0,0 UV-I 0 W/m 28,3 km/h (4 Bft)
01.02.2014 07:18 6,0 C 3,3 C 81 % 993,9 hPa 0,0 l/m 0 min 2 min 0,0 UV-I 0 W/m 23,2 km/h (4 Bft)
01.02.2014 07:20 5,9 C 3,3 C 82 % 993,9 hPa 0,0 l/m 0 min 2 min 0,0 UV-I 0 W/m 23,2 km/h (4 Bft)
01.02.2014 07:22 5,9 C 3,3 C 82 % 994,0 hPa 0,0 l/m 0 min 2 min 0,0 UV-I 0 W/m 20,6 km/h (4 Bft)
01.02.2014 07:24 5,9 C 3,3 C 82 % 994,1 hPa 0,0 l/m 0 min 2 min 0,0 UV-I 0 W/m 33,5 km/h (5 Bft)
01.02.2014 07:26 5,9 C 3,3 C 82 % 994,1 hPa 0,0 l/m 0 min 2 min 0,0 UV-I 0 W/m 20,6 km/h (4 Bft)
01.02.2014 07:28 6,0 C 3,3 C 82 % 994,0 hPa 0,0 l/m 0 min 2 min 0,0 UV-I 0 W/m 20,6 km/h (4 Bft)
01.02.2014 07:30 6,0 C 3,3 C 82 % 994,2 hPa 0,0 l/m 0 min 2 min 0,0 UV-I 0 W/m 33,5 km/h (5 Bft)
01.02.2014 07:32 6,1 C 3,9 C 81 % 994,2 hPa 0,0 l/m 0 min 2 min 0,0 UV-I 0 W/m 23,2 km/h (4 Bft)
01.02.2014 07:34 6,1 C 3,9 C 81 % 994,2 hPa 0,0 l/m 0 min 0 min 0,0 UV-I 0 W/m 25,7 km/h (4 Bft)
01.02.2014 07:36 6,1 C 3,9 C 81 % 994,2 hPa 0,0 l/m 0 min 0 min 0,0 UV-I 0 W/m 25,7 km/h (4 Bft)
01.02.2014 07:38 6,2 C 3,9 C 81 % 994,2 hPa 0,0 l/m 0 min 0 min 0,0 UV-I 0 W/m 20,6 km/h (4 Bft)
01.02.2014 07:40 6,2 C 3,9 C 81 % 994,3 hPa 0,0 l/m 0 min 0 min 0,0 UV-I 0 W/m 33,5 km/h (5 Bft)
01.02.2014 07:42 6,2 C 3,9 C 81 % 994,3 hPa 0,0 l/m 0 min 2 min 0,0 UV-I 0 W/m 25,7 km/h (4 Bft)
01.02.2014 07:44 6,2 C 3,9 C 81 % 994,3 hPa 0,0 l/m 0 min 2 min 0,0 UV-I 0 W/m 23,2 km/h (4 Bft)
01.02.2014 07:46 6,2 C 3,9 C 81 % 994,3 hPa 0,0 l/m 0 min 2 min 0,0 UV-I 0 W/m 41,2 km/h (6 Bft)
01.02.2014 07:48 6,2 C 3,9 C 81 % 994,3 hPa 0,0 l/m 0 min 2 min 0,0 UV-I 0 W/m 23,2 km/h (4 Bft)
01.02.2014 07:50 6,2 C 3,9 C 81 % 994,3 hPa 0,2 l/m 0 min 2 min 0,0 UV-I 0 W/m 25,7 km/h (4 Bft)
01.02.2014 07:52 6,2 C 3,3 C 81 % 994,3 hPa 0,0 l/m 0 min 2 min 0,0 UV-I 0 W/m 25,7 km/h (4 Bft)
01.02.2014 07:54 6,2 C 3,3 C 81 % 994,3 hPa 0,0 l/m 0 min 2 min 0,0 UV-I 0 W/m 23,2 km/h (4 Bft)
01.02.2014 07:56 6,1 C 3,3 C 82 % 994,3 hPa 0,0 l/m 0 min 2 min 0,0 UV-I 0 W/m 30,9 km/h (5 Bft)
01.02.2014 07:58 6,1 C 3,3 C 82 % 994,5 hPa 0,0 l/m 0 min 2 min 0,0 UV-I 0 W/m 25,7 km/h (4 Bft)
01.02.2014 08:00 6,0 C 3,3 C 82 % 994,5 hPa 0,0 l/m 0 min 2 min 0,0 UV-I 0 W/m 25,7 km/h (4 Bft)
01.02.2014 08:02 6,0 C 3,3 C 82 % 994,4 hPa 0,0 l/m 0 min 2 min 0,0 UV-I 0 W/m 23,2 km/h (4 Bft)
01.02.2014 08:04 6,0 C 3,3 C 82 % 994,5 hPa 0,0 l/m 0 min 0 min 0,0 UV-I 0 W/m 25,7 km/h (4 Bft)
01.02.2014 08:06 6,0 C 3,3 C 82 % 994,4 hPa 0,0 l/m 0 min 2 min 0,0 UV-I 0 W/m 23,2 km/h (4 Bft)
01.02.2014 08:08 6,0 C 3,3 C 82 % 994,5 hPa 0,0 l/m 0 min 0 min 0,0 UV-I 0 W/m 20,6 km/h (4 Bft)
01.02.2014 08:10 6,0 C 3,3 C 82 % 994,4 hPa 0,0 l/m 0 min 0 min 0,0 UV-I 0 W/m 28,3 km/h (4 Bft)
01.02.2014 08:12 6,1 C 3,3 C 82 % 994,5 hPa 0,0 l/m 0 min 0 min 0,0 UV-I 0 W/m 23,2 km/h (4 Bft)
01.02.2014 08:14 6,1 C 3,3 C 82 % 994,4 hPa 0,0 l/m 0 min 0 min 0,0 UV-I 0 W/m 15,4 km/h (3 Bft)
01.02.2014 08:16 6,1 C 3,9 C 82 % 994,5 hPa 0,0 l/m 0 min 0 min 0,0 UV-I 0 W/m 25,7 km/h (4 Bft)
01.02.2014 08:18 6,1 C 3,9 C 82 % 994,5 hPa 0,0 l/m 0 min 0 min 0,0 UV-I 0 W/m 25,7 km/h (4 Bft)
01.02.2014 08:20 6,1 C 3,9 C 82 % 994,4 hPa 0,0 l/m 0 min 0 min 0,0 UV-I 0 W/m 23,2 km/h (4 Bft)
01.02.2014 08:22 6,1 C 3,9 C 82 % 994,5 hPa 0,0 l/m 0 min 2 min 0,0 UV-I 0 W/m 12,9 km/h (3 Bft)
01.02.2014 08:24 6,1 C 3,9 C 83 % 994,5 hPa 0,0 l/m 0 min 2 min 0,0 UV-I 0 W/m 25,7 km/h (4 Bft)
01.02.2014 08:26 6,1 C 3,9 C 83 % 994,5 hPa 0,0 l/m 0 min 2 min 0,0 UV-I 0 W/m 30,9 km/h (5 Bft)
01.02.2014 08:28 6,1 C 3,9 C 83 % 994,6 hPa 0,0 l/m 0 min 2 min 0,0 UV-I 0 W/m 25,7 km/h (4 Bft)
01.02.2014 08:30 6,1 C 3,9 C 83 % 994,5 hPa 0,0 l/m 0 min 2 min 0,0 UV-I 0 W/m 30,9 km/h (5 Bft)
01.02.2014 08:32 6,1 C 3,9 C 83 % 994,5 hPa 0,0 l/m 0 min 2 min 0,0 UV-I 5 W/m 30,9 km/h (5 Bft)
01.02.2014 08:34 6,1 C 3,9 C 84 % 994,5 hPa 0,0 l/m 0 min 0 min 0,0 UV-I 5 W/m 23,2 km/h (4 Bft)
01.02.2014 08:36 6,1 C 3,9 C 84 % 994,6 hPa 0,0 l/m 0 min 2 min 0,0 UV-I 5 W/m 18,0 km/h (3 Bft)
01.02.2014 08:38 6,1 C 3,9 C 84 % 994,6 hPa 0,0 l/m 0 min 0 min 0,0 UV-I 5 W/m 18,0 km/h (3 Bft)
01.02.2014 08:40 6,1 C 3,9 C 84 % 994,6 hPa 0,0 l/m 0 min 0 min 0,0 UV-I 7 W/m 20,6 km/h (4 Bft)
01.02.2014 08:42 6,1 C 3,9 C 84 % 994,7 hPa 0,0 l/m 0 min 2 min 0,0 UV-I 7 W/m 15,4 km/h (3 Bft)
01.02.2014 08:44 6,1 C 3,9 C 84 % 994,7 hPa 0,0 l/m 0 min 2 min 0,0 UV-I 7 W/m 18,0 km/h (3 Bft)
01.02.2014 08:46 6,1 C 3,9 C 84 % 994,8 hPa 0,0 l/m 0 min 2 min 0,0 UV-I 7 W/m 20,6 km/h (4 Bft)
01.02.2014 08:48 6,1 C 3,9 C 84 % 994,9 hPa 0,0 l/m 0 min 2 min 0,0 UV-I 9 W/m 25,7 km/h (4 Bft)
01.02.2014 08:50 6,2 C 3,9 C 84 % 994,8 hPa 0,0 l/m 0 min 2 min 0,0 UV-I 9 W/m 18,0 km/h (3 Bft)
01.02.2014 08:52 6,2 C 3,9 C 84 % 994,8 hPa 0,0 l/m 0 min 2 min 0,0 UV-I 11 W/m 20,6 km/h (4 Bft)
01.02.2014 08:54 6,2 C 3,9 C 85 % 994,8 hPa 0,0 l/m 0 min 2 min 0,0 UV-I 11 W/m 12,9 km/h (3 Bft)
01.02.2014 08:56 6,2 C 3,9 C 85 % 994,8 hPa 0,0 l/m 0 min 2 min 0,0 UV-I 14 W/m 20,6 km/h (4 Bft)
01.02.2014 08:58 6,1 C 3,9 C 86 % 994,8 hPa 0,2 l/m 0 min 2 min 0,0 UV-I 14 W/m 10,3 km/h (2 Bft)
01.02.2014 09:00 6,1 C 3,9 C 86 % 994,9 hPa 0,0 l/m 0 min 2 min 0,0 UV-I 16 W/m 25,7 km/h (4 Bft)
01.02.2014 09:02 6,1 C 3,9 C 86 % 994,9 hPa 0,0 l/m 0 min 2 min 0,0 UV-I 18 W/m 18,0 km/h (3 Bft)
01.02.2014 09:04 6,1 C 3,9 C 87 % 994,9 hPa 0,0 l/m 0 min 2 min 0,0 UV-I 19 W/m 18,0 km/h (3 Bft)
01.02.2014 09:06 6,1 C 3,9 C 87 % 995,0 hPa 0,0 l/m 0 min 2 min 0,0 UV-I 19 W/m 18,0 km/h (3 Bft)
01.02.2014 09:08 6,1 C 3,9 C 87 % 995,0 hPa 0,0 l/m 0 min 2 min 0,0 UV-I 19 W/m 12,9 km/h (3 Bft)
01.02.2014 09:10 6,1 C 3,9 C 87 % 995,0 hPa 0,0 l/m 0 min 2 min 0,0 UV-I 19 W/m 15,4 km/h (3 Bft)
01.02.2014 09:12 6,1 C 3,9 C 87 % 995,1 hPa 0,0 l/m 0 min 2 min 0,0 UV-I 18 W/m 20,6 km/h (4 Bft)
01.02.2014 09:14 6,1 C 3,9 C 87 % 995,1 hPa 0,0 l/m 0 min 2 min 0,0 UV-I 18 W/m 28,3 km/h (4 Bft)
01.02.2014 09:16 6,1 C 3,9 C 88 % 995,1 hPa 0,0 l/m 0 min 2 min 0,0 UV-I 18 W/m 20,6 km/h (4 Bft)
01.02.2014 09:18 6,1 C 3,9 C 88 % 995,1 hPa 0,0 l/m 0 min 2 min 0,0 UV-I 18 W/m 20,6 km/h (4 Bft)
01.02.2014 09:20 6,1 C 3,9 C 88 % 995,1 hPa 0,0 l/m 0 min 2 min 0,0 UV-I 16 W/m 10,3 km/h (2 Bft)
01.02.2014 09:22 6,2 C 3,9 C 88 % 995,0 hPa 0,0 l/m 0 min 2 min 0,0 UV-I 18 W/m 18,0 km/h (3 Bft)
01.02.2014 09:24 6,2 C 3,9 C 88 % 995,1 hPa 0,0 l/m 0 min 2 min 0,0 UV-I 19 W/m 23,2 km/h (4 Bft)
01.02.2014 09:26 6,2 C 3,9 C 88 % 995,1 hPa 0,0 l/m 0 min 2 min 0,0 UV-I 19 W/m 15,4 km/h (3 Bft)
01.02.2014 09:28 6,2 C 3,9 C 88 % 995,1 hPa 0,0 l/m 0 min 2 min 0,0 UV-I 21 W/m 20,6 km/h (4 Bft)
01.02.2014 09:30 6,2 C 3,9 C 88 % 995,2 hPa 0,0 l/m 0 min 2 min 0,0 UV-I 21 W/m 15,4 km/h (3 Bft)
01.02.2014 09:32 6,2 C 3,9 C 88 % 995,2 hPa 0,2 l/m 0 min 2 min 0,0 UV-I 25 W/m 20,6 km/h (4 Bft)
01.02.2014 09:34 6,2 C 3,9 C 88 % 995,2 hPa 0,0 l/m 0 min 2 min 0,0 UV-I 26 W/m 10,3 km/h (2 Bft)
01.02.2014 09:36 6,2 C 3,9 C 88 % 995,3 hPa 0,0 l/m 0 min 2 min 0,0 UV-I 28 W/m 20,6 km/h (4 Bft)
01.02.2014 09:38 6,2 C 3,9 C 88 % 995,3 hPa 0,0 l/m 0 min 2 min 0,0 UV-I 30 W/m 15,4 km/h (3 Bft)
01.02.2014 09:40 6,2 C 3,9 C 88 % 995,3 hPa 0,0 l/m 0 min 2 min 0,0 UV-I 28 W/m 12,9 km/h (3 Bft)
01.02.2014 09:42 6,2 C 3,9 C 89 % 995,3 hPa 0,0 l/m 0 min 2 min 0,0 UV-I 32 W/m 25,7 km/h (4 Bft)
01.02.2014 09:44 6,2 C 3,9 C 89 % 995,2 hPa 0,0 l/m 0 min 2 min 0,0 UV-I 28 W/m 15,4 km/h (3 Bft)
01.02.2014 09:46 6,2 C 3,9 C 89 % 995,3 hPa 0,0 l/m 0 min 2 min 0,0 UV-I 33 W/m 20,6 km/h (4 Bft)
01.02.2014 09:48 6,2 C 3,9 C 89 % 995,3 hPa 0,0 l/m 0 min 2 min 0,0 UV-I 33 W/m 12,9 km/h (3 Bft)
01.02.2014 09:50 6,2 C 3,9 C 89 % 995,3 hPa 0,0 l/m 0 min 2 min 0,0 UV-I 33 W/m 23,2 km/h (4 Bft)
01.02.2014 09:52 6,3 C 3,9 C 89 % 995,4 hPa 0,0 l/m 0 min 2 min 0,0 UV-I 32 W/m 28,3 km/h (4 Bft)
01.02.2014 09:54 6,3 C 3,9 C 89 % 995,3 hPa 0,0 l/m 0 min 2 min 0,0 UV-I 28 W/m 20,6 km/h (4 Bft)
01.02.2014 09:56 6,3 C 3,9 C 89 % 995,4 hPa 0,0 l/m 0 min 2 min 0,0 UV-I 26 W/m 25,7 km/h (4 Bft)
01.02.2014 09:58 6,3 C 3,9 C 89 % 995,4 hPa 0,0 l/m 0 min 2 min 0,0 UV-I 26 W/m 15,4 km/h (3 Bft)
01.02.2014 10:00 6,3 C 3,9 C 89 % 995,4 hPa 0,0 l/m 0 min 2 min 0,0 UV-I 28 W/m 18,0 km/h (3 Bft)
01.02.2014 10:02 6,3 C 3,9 C 89 % 995,4 hPa 0,0 l/m 0 min 2 min 0,0 UV-I 28 W/m 15,4 km/h (3 Bft)
01.02.2014 10:04 6,3 C 3,9 C 89 % 995,4 hPa 0,0 l/m 0 min 2 min 0,0 UV-I 28 W/m 10,3 km/h (2 Bft)
01.02.2014 10:06 6,3 C 3,9 C 89 % 995,4 hPa 0,0 l/m 0 min 2 min 0,0 UV-I 26 W/m 18,0 km/h (3 Bft)
01.02.2014 10:08 6,3 C 3,9 C 89 % 995,4 hPa 0,0 l/m 0 min 2 min 0,0 UV-I 26 W/m 12,9 km/h (3 Bft)
01.02.2014 10:10 6,3 C 3,9 C 89 % 995,4 hPa 0,0 l/m 0 min 2 min 0,0 UV-I 28 W/m 15,4 km/h (3 Bft)
01.02.2014 10:12 6,3 C 3,9 C 89 % 995,4 hPa 0,0 l/m 0 min 2 min 0,0 UV-I 28 W/m 23,2 km/h (4 Bft)
01.02.2014 10:14 6,3 C 3,9 C 89 % 995,4 hPa 0,0 l/m 0 min 2 min 0,0 UV-I 25 W/m 18,0 km/h (3 Bft)
01.02.2014 10:16 6,3 C 3,9 C 89 % 995,4 hPa 0,0 l/m 0 min 2 min 0,0 UV-I 21 W/m 25,7 km/h (4 Bft)
01.02.2014 10:18 6,3 C 3,9 C 89 % 995,5 hPa 0,0 l/m 0 min 2 min 0,0 UV-I 23 W/m 18,0 km/h (3 Bft)
01.02.2014 10:20 6,3 C 3,9 C 89 % 995,5 hPa 0,0 l/m 0 min 2 min 0,0 UV-I 25 W/m 15,4 km/h (3 Bft)
01.02.2014 10:22 6,3 C 3,9 C 89 % 995,5 hPa 0,2 l/m 0 min 2 min 0,0 UV-I 23 W/m 15,4 km/h (3 Bft)
01.02.2014 10:24 6,3 C 3,9 C 89 % 995,6 hPa 0,0 l/m 0 min 2 min 0,0 UV-I 23 W/m 20,6 km/h (4 Bft)
01.02.2014 10:26 6,3 C 3,9 C 89 % 995,5 hPa 0,0 l/m 0 min 2 min 0,0 UV-I 23 W/m 20,6 km/h (4 Bft)
01.02.2014 10:28 6,3 C 3,9 C 90 % 995,6 hPa 0,0 l/m 0 min 2 min 0,0 UV-I 21 W/m 18,0 km/h (3 Bft)
01.02.2014 10:30 6,3 C 3,9 C 90 % 995,6 hPa 0,0 l/m 0 min 2 min 0,0 UV-I 21 W/m 10,3 km/h (2 Bft)
01.02.2014 10:32 6,3 C 3,9 C 90 % 995,7 hPa 0,0 l/m 0 min 2 min 0,0 UV-I 19 W/m 10,3 km/h (2 Bft)
01.02.2014 10:34 6,2 C 3,9 C 90 % 995,7 hPa 0,0 l/m 0 min 2 min 0,0 UV-I 19 W/m 20,6 km/h (4 Bft)
01.02.2014 10:36 6,2 C 3,9 C 90 % 995,6 hPa 0,0 l/m 0 min 2 min 0,0 UV-I 19 W/m 33,5 km/h (5 Bft)
01.02.2014 10:38 6,2 C 4,4 C 90 % 995,7 hPa 0,0 l/m 0 min 2 min 0,0 UV-I 21 W/m 12,9 km/h (3 Bft)
01.02.2014 10:40 6,3 C 4,4 C 90 % 995,8 hPa 0,0 l/m 0 min 2 min 0,0 UV-I 21 W/m 5,1 km/h (1 Bft)
01.02.2014 10:42 6,3 C 4,4 C 91 % 995,7 hPa 0,2 l/m 0 min 2 min 0,0 UV-I 23 W/m 12,9 km/h (3 Bft)
01.02.2014 10:44 6,3 C 4,4 C 91 % 995,8 hPa 0,0 l/m 0 min 2 min 0,0 UV-I 23 W/m 12,9 km/h (3 Bft)
01.02.2014 10:46 6,3 C 4,4 C 91 % 995,8 hPa 0,0 l/m 0 min 2 min 0,0 UV-I 25 W/m 10,3 km/h (2 Bft)
01.02.2014 10:48 6,3 C 4,4 C 91 % 995,8 hPa 0,0 l/m 0 min 2 min 0,0 UV-I 26 W/m 18,0 km/h (3 Bft)
01.02.2014 10:50 6,3 C 4,4 C 91 % 995,8 hPa 0,0 l/m 0 min 2 min 0,0 UV-I 28 W/m 23,2 km/h (4 Bft)
01.02.2014 10:52 6,2 C 4,4 C 91 % 996,0 hPa 0,2 l/m 0 min 2 min 0,0 UV-I 26 W/m 12,9 km/h (3 Bft)
01.02.2014 10:54 6,2 C 4,4 C 91 % 996,0 hPa 0,0 l/m 0 min 2 min 0,0 UV-I 26 W/m 10,3 km/h (2 Bft)
01.02.2014 10:56 6,2 C 4,4 C 91 % 996,1 hPa 0,0 l/m 0 min 2 min 0,0 UV-I 26 W/m 20,6 km/h (4 Bft)
01.02.2014 10:58 6,2 C 4,4 C 92 % 996,1 hPa 0,0 l/m 0 min 2 min 0,0 UV-I 30 W/m 23,2 km/h (4 Bft)
01.02.2014 11:00 6,2 C 4,4 C 92 % 996,2 hPa 0,0 l/m 0 min 2 min 0,0 UV-I 32 W/m 5,1 km/h (1 Bft)
01.02.2014 11:02 6,2 C 4,4 C 92 % 996,1 hPa 0,2 l/m 0 min 2 min 0,0 UV-I 30 W/m 10,3 km/h (2 Bft)
01.02.2014 11:04 6,2 C 4,4 C 92 % 996,1 hPa 0,0 l/m 0 min 2 min 0,0 UV-I 30 W/m 15,4 km/h (3 Bft)
01.02.2014 11:06 6,2 C 4,4 C 92 % 996,1 hPa 0,0 l/m 0 min 2 min 0,0 UV-I 28 W/m 5,1 km/h (1 Bft)
01.02.2014 11:08 6,2 C 4,4 C 92 % 996,2 hPa 0,0 l/m 0 min 2 min 0,0 UV-I 25 W/m 7,7 km/h (2 Bft)
01.02.2014 11:10 6,2 C 4,4 C 93 % 996,3 hPa 0,0 l/m 0 min 2 min 0,0 UV-I 26 W/m 12,9 km/h (3 Bft)
01.02.2014 11:12 6,2 C 4,4 C 93 % 996,3 hPa 0,2 l/m 0 min 2 min 0,0 UV-I 30 W/m 15,4 km/h (3 Bft)
01.02.2014 11:14 6,2 C 4,4 C 93 % 996,3 hPa 0,0 l/m 0 min 2 min 0,0 UV-I 28 W/m 10,3 km/h (2 Bft)
01.02.2014 11:16 6,3 C 4,4 C 93 % 996,3 hPa 0,0 l/m 0 min 2 min 0,0 UV-I 28 W/m 15,4 km/h (3 Bft)
01.02.2014 11:18 6,3 C 4,4 C 93 % 996,4 hPa 0,0 l/m 0 min 2 min 0,0 UV-I 28 W/m 12,9 km/h (3 Bft)
01.02.2014 11:20 6,3 C 4,4 C 93 % 996,5 hPa 0,0 l/m 0 min 2 min 0,0 UV-I 28 W/m 18,0 km/h (3 Bft)
01.02.2014 11:22 6,3 C 4,4 C 93 % 996,5 hPa 0,0 l/m 0 min 2 min 0,0 UV-I 25 W/m 7,7 km/h (2 Bft)
01.02.2014 11:24 6,3 C 4,4 C 93 % 996,5 hPa 0,0 l/m 0 min 2 min 0,0 UV-I 26 W/m 20,6 km/h (4 Bft)
01.02.2014 11:26 6,3 C 4,4 C 93 % 996,5 hPa 0,0 l/m 0 min 2 min 0,0 UV-I 26 W/m 7,7 km/h (2 Bft)
01.02.2014 11:28 6,3 C 4,4 C 93 % 996,6 hPa 0,0 l/m 0 min 2 min 0,0 UV-I 28 W/m 12,9 km/h (3 Bft)
01.02.2014 11:30 6,3 C 4,4 C 93 % 996,5 hPa 0,0 l/m 0 min 2 min 0,0 UV-I 28 W/m 10,3 km/h (2 Bft)
01.02.2014 11:32 6,3 C 4,4 C 93 % 996,7 hPa 0,2 l/m 0 min 2 min 0,0 UV-I 30 W/m 12,9 km/h (3 Bft)
01.02.2014 11:34 6,3 C 4,4 C 93 % 996,7 hPa 0,0 l/m 0 min 2 min 0,0 UV-I 32 W/m 15,4 km/h (3 Bft)
01.02.2014 11:36 6,3 C 4,4 C 93 % 996,7 hPa 0,0 l/m 0 min 2 min 0,0 UV-I 30 W/m 7,7 km/h (2 Bft)
01.02.2014 11:38 6,3 C 4,4 C 93 % 996,8 hPa 0,0 l/m 0 min 2 min 0,0 UV-I 28 W/m 10,3 km/h (2 Bft)
01.02.2014 11:40 6,3 C 4,4 C 93 % 996,8 hPa 0,0 l/m 0 min 2 min 0,0 UV-I 28 W/m 12,9 km/h (3 Bft)
01.02.2014 11:42 6,3 C 4,4 C 93 % 996,8 hPa 0,2 l/m 0 min 2 min 0,0 UV-I 26 W/m 10,3 km/h (2 Bft)
01.02.2014 11:44 6,3 C 4,4 C 93 % 996,9 hPa 0,0 l/m 0 min 2 min 0,0 UV-I 26 W/m 10,3 km/h (2 Bft)
01.02.2014 11:46 6,3 C 4,4 C 93 % 996,8 hPa 0,0 l/m 0 min 2 min 0,0 UV-I 28 W/m 12,9 km/h (3 Bft)
01.02.2014 11:48 6,3 C 4,4 C 93 % 996,9 hPa 0,0 l/m 0 min 2 min 0,0 UV-I 30 W/m 18,0 km/h (3 Bft)
01.02.2014 11:50 6,3 C 4,4 C 93 % 996,9 hPa 0,0 l/m 0 min 2 min 0,0 UV-I 30 W/m 10,3 km/h (2 Bft)
01.02.2014 11:52 6,3 C 4,4 C 93 % 996,9 hPa 0,0 l/m 0 min 2 min 0,0 UV-I 28 W/m 12,9 km/h (3 Bft)
01.02.2014 11:54 6,3 C 4,4 C 93 % 996,9 hPa 0,2 l/m 0 min 2 min 0,0 UV-I 30 W/m 12,9 km/h (3 Bft)
01.02.2014 11:56 6,3 C 4,4 C 93 % 996,9 hPa 0,0 l/m 0 min 2 min 0,0 UV-I 32 W/m 10,3 km/h (2 Bft)
01.02.2014 11:58 6,3 C 4,4 C 94 % 997,0 hPa 0,0 l/m 0 min 2 min 0,0 UV-I 35 W/m 12,9 km/h (3 Bft)
01.02.2014 12:00 6,3 C 4,4 C 94 % 997,0 hPa 0,0 l/m 0 min 2 min 0,0 UV-I 32 W/m 7,7 km/h (2 Bft)
01.02.2014 12:02 6,3 C 4,4 C 94 % 997,1 hPa 0,0 l/m 0 min 2 min 0,0 UV-I 32 W/m 12,9 km/h (3 Bft)
01.02.2014 12:04 6,3 C 4,4 C 94 % 997,1 hPa 0,2 l/m 0 min 2 min 0,0 UV-I 32 W/m 10,3 km/h (2 Bft)
01.02.2014 12:06 6,2 C 4,4 C 94 % 997,1 hPa 0,0 l/m 0 min 2 min 0,0 UV-I 33 W/m 18,0 km/h (3 Bft)
01.02.2014 12:08 6,2 C 4,4 C 94 % 997,2 hPa 0,0 l/m 0 min 2 min 0,0 UV-I 32 W/m 10,3 km/h (2 Bft)
01.02.2014 12:10 6,2 C 4,4 C 94 % 997,2 hPa 0,0 l/m 0 min 2 min 0,0 UV-I 37 W/m 12,9 km/h (3 Bft)
01.02.2014 12:12 6,2 C 4,4 C 94 % 997,2 hPa 0,0 l/m 0 min 2 min 0,0 UV-I 35 W/m 18,0 km/h (3 Bft)
01.02.2014 12:14 6,2 C 4,4 C 94 % 997,2 hPa 0,0 l/m 0 min 2 min 0,0 UV-I 40 W/m 15,4 km/h (3 Bft)
01.02.2014 12:16 6,3 C 4,4 C 94 % 997,2 hPa 0,0 l/m 0 min 2 min 0,0 UV-I 40 W/m 10,3 km/h (2 Bft)
01.02.2014 12:18 6,2 C 4,4 C 94 % 997,2 hPa 0,0 l/m 0 min 2 min 0,0 UV-I 42 W/m 12,9 km/h (3 Bft)
01.02.2014 12:20 6,2 C 4,4 C 94 % 997,3 hPa 0,0 l/m 0 min 2 min 0,0 UV-I 39 W/m 5,1 km/h (1 Bft)
01.02.2014 12:22 6,2 C 4,4 C 94 % 997,3 hPa 0,0 l/m 0 min 2 min 0,0 UV-I 33 W/m 10,3 km/h (2 Bft)
01.02.2014 12:24 6,2 C 4,4 C 94 % 997,3 hPa 0,2 l/m 0 min 2 min 0,0 UV-I 35 W/m 5,1 km/h (1 Bft)
01.02.2014 12:26 6,2 C 4,4 C 94 % 997,3 hPa 0,0 l/m 0 min 2 min 0,0 UV-I 37 W/m 7,7 km/h (2 Bft)
01.02.2014 12:28 6,2 C 4,4 C 94 % 997,4 hPa 0,0 l/m 0 min 2 min 0,0 UV-I 35 W/m 18,0 km/h (3 Bft)
01.02.2014 12:30 6,2 C 4,4 C 94 % 997,4 hPa 0,0 l/m 0 min 2 min 0,0 UV-I 35 W/m 12,9 km/h (3 Bft)
01.02.2014 12:32 6,2 C 4,4 C 94 % 997,4 hPa 0,0 l/m 0 min 2 min 0,0 UV-I 35 W/m 10,3 km/h (2 Bft)
01.02.2014 12:34 6,2 C 4,4 C 94 % 997,4 hPa 0,0 l/m 0 min 2 min 0,0 UV-I 39 W/m 5,1 km/h (1 Bft)
01.02.2014 12:36 6,2 C 4,4 C 94 % 997,4 hPa 0,0 l/m 0 min 2 min 0,0 UV-I 40 W/m 2,6 km/h (1 Bft)
01.02.2014 12:38 6,2 C 4,4 C 94 % 997,4 hPa 0,0 l/m 0 min 2 min 0,0 UV-I 51 W/m 18,0 km/h (3 Bft)
01.02.2014 12:40 6,2 C 4,4 C 94 % 997,5 hPa 0,0 l/m 0 min 2 min 0,0 UV-I 42 W/m 18,0 km/h (3 Bft)
01.02.2014 12:42 6,2 C 4,4 C 94 % 997,5 hPa 0,0 l/m 0 min 2 min 0,0 UV-I 44 W/m 23,2 km/h (4 Bft)
01.02.2014 12:44 6,2 C 4,4 C 94 % 997,5 hPa 0,0 l/m 0 min 2 min 0,0 UV-I 47 W/m 10,3 km/h (2 Bft)
01.02.2014 12:46 6,2 C 4,4 C 94 % 997,6 hPa 0,0 l/m 0 min 2 min 0,0 UV-I 51 W/m 12,9 km/h (3 Bft)
01.02.2014 12:48 6,2 C 4,4 C 94 % 997,6 hPa 0,0 l/m 0 min 2 min 0,0 UV-I 56 W/m 12,9 km/h (3 Bft)
01.02.2014 12:50 6,2 C 5,0 C 94 % 997,6 hPa 0,0 l/m 0 min 2 min 0,0 UV-I 56 W/m 5,1 km/h (1 Bft)
01.02.2014 12:52 6,3 C 5,0 C 94 % 997,6 hPa 0,0 l/m 0 min 2 min 0,0 UV-I 69 W/m 10,3 km/h (2 Bft)
01.02.2014 12:54 6,3 C 5,0 C 94 % 997,6 hPa 0,0 l/m 0 min 2 min 0,0 UV-I 60 W/m 10,3 km/h (2 Bft)
01.02.2014 12:56 6,3 C 5,0 C 94 % 997,6 hPa 0,0 l/m 0 min 2 min 0,0 UV-I 58 W/m 12,9 km/h (3 Bft)
01.02.2014 12:58 6,3 C 5,0 C 95 % 997,7 hPa 0,0 l/m 0 min 2 min 0,0 UV-I 62 W/m 18,0 km/h (3 Bft)
01.02.2014 13:00 6,3 C 5,0 C 94 % 997,7 hPa 0,0 l/m 0 min 2 min 0,0 UV-I 65 W/m 10,3 km/h (2 Bft)
01.02.2014 13:02 6,3 C 5,0 C 94 % 997,7 hPa 0,0 l/m 0 min 2 min 0,0 UV-I 65 W/m 25,7 km/h (4 Bft)
01.02.2014 13:04 6,4 C 5,0 C 94 % 997,7 hPa 0,0 l/m 0 min 2 min 0,0 UV-I 63 W/m 18,0 km/h (3 Bft)
01.02.2014 13:06 6,4 C 5,0 C 94 % 997,7 hPa 0,0 l/m 0 min 2 min 0,0 UV-I 72 W/m 10,3 km/h (2 Bft)
01.02.2014 13:08 6,4 C 5,0 C 94 % 997,7 hPa 0,0 l/m 0 min 2 min 0,0 UV-I 69 W/m 18,0 km/h (3 Bft)
01.02.2014 13:10 6,4 C 5,0 C 94 % 997,7 hPa 0,0 l/m 0 min 2 min 0,0 UV-I 58 W/m 12,9 km/h (3 Bft)
01.02.2014 13:12 6,4 C 5,0 C 94 % 997,8 hPa 0,0 l/m 0 min 2 min 0,0 UV-I 56 W/m 10,3 km/h (2 Bft)
01.02.2014 13:14 6,4 C 5,0 C 94 % 997,9 hPa 0,0 l/m 0 min 2 min 0,0 UV-I 62 W/m 18,0 km/h (3 Bft)
01.02.2014 13:16 6,4 C 5,0 C 94 % 997,9 hPa 0,2 l/m 0 min 2 min 0,0 UV-I 65 W/m 10,3 km/h (2 Bft)
01.02.2014 13:18 6,4 C 5,0 C 94 % 997,8 hPa 0,0 l/m 0 min 2 min 0,0 UV-I 69 W/m 2,6 km/h (1 Bft)
01.02.2014 13:20 6,4 C 5,0 C 94 % 997,9 hPa 0,0 l/m 0 min 2 min 0,0 UV-I 62 W/m 12,9 km/h (3 Bft)
01.02.2014 13:22 6,4 C 5,0 C 94 % 997,9 hPa 0,0 l/m 0 min 2 min 0,0 UV-I 58 W/m 18,0 km/h (3 Bft)
01.02.2014 13:24 6,4 C 5,0 C 94 % 997,9 hPa 0,0 l/m 0 min 2 min 0,0 UV-I 53 W/m 15,4 km/h (3 Bft)
01.02.2014 13:26 6,4 C 5,0 C 94 % 997,9 hPa 0,0 l/m 0 min 2 min 0,0 UV-I 54 W/m 12,9 km/h (3 Bft)
01.02.2014 13:28 6,4 C 5,0 C 94 % 998,0 hPa 0,0 l/m 0 min 2 min 0,0 UV-I 67 W/m 20,6 km/h (4 Bft)
01.02.2014 13:30 6,4 C 5,0 C 94 % 997,9 hPa 0,0 l/m 0 min 2 min 0,0 UV-I 72 W/m 12,9 km/h (3 Bft)
01.02.2014 13:32 6,4 C 5,0 C 94 % 997,9 hPa 0,0 l/m 0 min 2 min 0,0 UV-I 65 W/m 15,4 km/h (3 Bft)
01.02.2014 13:34 6,4 C 5,0 C 95 % 997,9 hPa 0,0 l/m 0 min 2 min 0,0 UV-I 60 W/m 2,6 km/h (1 Bft)
01.02.2014 13:36 6,4 C 5,0 C 95 % 997,9 hPa 0,0 l/m 0 min 2 min 0,0 UV-I 53 W/m 7,7 km/h (2 Bft)
01.02.2014 13:38 6,4 C 5,0 C 95 % 998,0 hPa 0,0 l/m 0 min 2 min 0,0 UV-I 56 W/m 7,7 km/h (2 Bft)
01.02.2014 13:40 6,4 C 5,0 C 95 % 998,0 hPa 0,0 l/m 0 min 2 min 0,0 UV-I 53 W/m 7,7 km/h (2 Bft)
01.02.2014 13:42 6,4 C 5,0 C 95 % 998,1 hPa 0,0 l/m 0 min 2 min 0,0 UV-I 53 W/m 12,9 km/h (3 Bft)
01.02.2014 13:44 6,4 C 5,0 C 95 % 998,1 hPa 0,0 l/m 0 min 2 min 0,0 UV-I 53 W/m 0,0 km/h (0 Bft)
01.02.2014 13:46 6,4 C 5,0 C 95 % 998,1 hPa 0,0 l/m 0 min 2 min 0,0 UV-I 47 W/m 2,6 km/h (1 Bft)
01.02.2014 13:48 6,4 C 5,0 C 95 % 998,1 hPa 0,0 l/m 0 min 2 min 0,0 UV-I 39 W/m 0,0 km/h (0 Bft)
01.02.2014 13:50 6,4 C 5,0 C 95 % 998,1 hPa 0,0 l/m 0 min 2 min 0,0 UV-I 33 W/m 7,7 km/h (2 Bft)
01.02.2014 13:52 6,4 C 5,0 C 95 % 998,1 hPa 0,0 l/m 0 min 2 min 0,0 UV-I 30 W/m 0,0 km/h (0 Bft)
01.02.2014 13:54 6,4 C 5,0 C 95 % 998,1 hPa 0,0 l/m 0 min 2 min 0,0 UV-I 26 W/m 15,4 km/h (3 Bft)
01.02.2014 13:56 6,4 C 5,0 C 95 % 998,2 hPa 0,0 l/m 0 min 2 min 0,0 UV-I 26 W/m 12,9 km/h (3 Bft)
01.02.2014 13:58 6,3 C 5,0 C 95 % 998,2 hPa 0,0 l/m 0 min 2 min 0,0 UV-I 25 W/m 15,4 km/h (3 Bft)
01.02.2014 14:00 6,3 C 5,0 C 95 % 998,3 hPa 0,2 l/m 0 min 2 min 0,0 UV-I 32 W/m 15,4 km/h (3 Bft)
01.02.2014 14:02 6,3 C 5,0 C 95 % 998,3 hPa 0,0 l/m 0 min 2 min 0,0 UV-I 37 W/m 5,1 km/h (1 Bft)
01.02.2014 14:04 6,3 C 5,0 C 95 % 998,4 hPa 0,0 l/m 0 min 2 min 0,0 UV-I 25 W/m 7,7 km/h (2 Bft)
01.02.2014 14:06 6,3 C 5,0 C 95 % 998,4 hPa 0,0 l/m 0 min 2 min 0,0 UV-I 23 W/m 5,1 km/h (1 Bft)
01.02.2014 14:08 6,3 C 5,0 C 95 % 998,4 hPa 0,0 l/m 0 min 0 min 0,0 UV-I 33 W/m 7,7 km/h (2 Bft)
01.02.2014 14:10 6,3 C 5,0 C 95 % 998,5 hPa 0,0 l/m 0 min 0 min 0,0 UV-I 42 W/m 2,6 km/h (1 Bft)
01.02.2014 14:12 6,4 C 5,0 C 96 % 998,5 hPa 0,0 l/m 0 min 0 min 0,0 UV-I 25 W/m 7,7 km/h (2 Bft)
01.02.2014 14:14 6,4 C 5,0 C 96 % 998,5 hPa 0,0 l/m 0 min 0 min 0,0 UV-I 28 W/m 10,3 km/h (2 Bft)
01.02.2014 14:16 6,4 C 5,0 C 96 % 998,6 hPa 0,0 l/m 0 min 0 min 0,0 UV-I 28 W/m 7,7 km/h (2 Bft)
01.02.2014 14:18 6,4 C 5,0 C 96 % 998,6 hPa 0,0 l/m 0 min 0 min 0,0 UV-I 32 W/m 5,1 km/h (1 Bft)
01.02.2014 14:20 6,4 C 5,0 C 96 % 998,6 hPa 0,0 l/m 0 min 0 min 0,0 UV-I 39 W/m 12,9 km/h (3 Bft)
01.02.2014 14:22 6,4 C 5,0 C 96 % 998,6 hPa 0,0 l/m 0 min 0 min 0,0 UV-I 37 W/m 7,7 km/h (2 Bft)
01.02.2014 14:24 6,4 C 5,0 C 96 % 998,7 hPa 0,0 l/m 0 min 0 min 0,0 UV-I 32 W/m 10,3 km/h (2 Bft)
01.02.2014 14:26 6,5 C 5,0 C 96 % 998,7 hPa 0,0 l/m 0 min 0 min 0,0 UV-I 37 W/m 2,6 km/h (1 Bft)
01.02.2014 14:28 6,5 C 5,0 C 96 % 998,7 hPa 0,0 l/m 0 min 0 min 0,0 UV-I 40 W/m 0,0 km/h (0 Bft)
01.02.2014 14:30 6,6 C 5,0 C 96 % 998,7 hPa 0,0 l/m 0 min 0 min 0,0 UV-I 54 W/m 5,1 km/h (1 Bft)
01.02.2014 14:32 6,6 C 5,0 C 96 % 998,7 hPa 0,0 l/m 0 min 0 min 0,0 UV-I 56 W/m 5,1 km/h (1 Bft)
01.02.2014 14:34 6,6 C 5,0 C 96 % 998,8 hPa 0,0 l/m 0 min 0 min 0,0 UV-I 54 W/m 10,3 km/h (2 Bft)
01.02.2014 14:36 6,7 C 5,0 C 96 % 998,7 hPa 0,0 l/m 0 min 0 min 0,0 UV-I 56 W/m 12,9 km/h (3 Bft)
01.02.2014 14:38 6,7 C 5,0 C 96 % 998,8 hPa 0,0 l/m 0 min 0 min 0,0 UV-I 56 W/m 7,7 km/h (2 Bft)
01.02.2014 14:40 6,7 C 5,0 C 96 % 998,8 hPa 0,0 l/m 0 min 0 min 0,0 UV-I 56 W/m 7,7 km/h (2 Bft)
01.02.2014 14:42 6,8 C 5,0 C 96 % 998,8 hPa 0,0 l/m 0 min 0 min 0,0 UV-I 54 W/m 5,1 km/h (1 Bft)
01.02.2014 14:44 6,8 C 5,6 C 96 % 998,8 hPa 0,0 l/m 0 min 0 min 0,0 UV-I 54 W/m 0,0 km/h (0 Bft)
01.02.2014 14:46 6,8 C 5,6 C 95 % 998,8 hPa 0,0 l/m 0 min 0 min 0,0 UV-I 54 W/m 0,0 km/h (0 Bft)
01.02.2014 14:48 6,8 C 5,6 C 95 % 998,8 hPa 0,0 l/m 0 min 0 min 0,0 UV-I 62 W/m 7,7 km/h (2 Bft)
01.02.2014 14:50 6,8 C 5,6 C 95 % 998,8 hPa 0,0 l/m 0 min 0 min 0,0 UV-I 67 W/m 2,6 km/h (1 Bft)
01.02.2014 14:52 6,8 C 5,6 C 95 % 998,9 hPa 0,0 l/m 0 min 0 min 0,0 UV-I 65 W/m 10,3 km/h (2 Bft)
01.02.2014 14:54 6,8 C 5,6 C 95 % 999,0 hPa 0,0 l/m 0 min 0 min 0,0 UV-I 62 W/m 12,9 km/h (3 Bft)
01.02.2014 14:56 6,9 C 5,6 C 95 % 999,0 hPa 0,0 l/m 0 min 0 min 0,0 UV-I 62 W/m 7,7 km/h (2 Bft)
01.02.2014 14:58 6,9 C 5,6 C 95 % 999,0 hPa 0,0 l/m 0 min 0 min 0,0 UV-I 47 W/m 10,3 km/h (2 Bft)
01.02.2014 15:00 6,9 C 5,6 C 95 % 999,2 hPa 0,0 l/m 0 min 0 min 0,0 UV-I 42 W/m 10,3 km/h (2 Bft)
01.02.2014 15:02 7,0 C 5,6 C 95 % 999,2 hPa 0,0 l/m 0 min 0 min 0,0 UV-I 54 W/m 0,0 km/h (0 Bft)
01.02.2014 15:04 7,0 C 5,6 C 95 % 999,2 hPa 0,0 l/m 0 min 0 min 0,0 UV-I 60 W/m 7,7 km/h (2 Bft)
01.02.2014 15:06 7,0 C 5,6 C 95 % 999,2 hPa 0,0 l/m 0 min 0 min 0,0 UV-I 62 W/m 7,7 km/h (2 Bft)
01.02.2014 15:08 7,1 C 5,6 C 95 % 999,2 hPa 0,0 l/m 0 min 0 min 0,0 UV-I 60 W/m 10,3 km/h (2 Bft)
01.02.2014 15:10 7,1 C 5,6 C 95 % 999,3 hPa 0,0 l/m 0 min 0 min 0,0 UV-I 63 W/m 0,0 km/h (0 Bft)
01.02.2014 15:12 7,1 C 5,6 C 95 % 999,2 hPa 0,0 l/m 0 min 0 min 0,0 UV-I 62 W/m 7,7 km/h (2 Bft)
01.02.2014 15:14 7,1 C 5,6 C 95 % 999,2 hPa 0,0 l/m 0 min 0 min 0,0 UV-I 58 W/m 7,7 km/h (2 Bft)
01.02.2014 15:16 7,1 C 5,6 C 95 % 999,3 hPa 0,0 l/m 0 min 0 min 0,0 UV-I 60 W/m 12,9 km/h (3 Bft)
01.02.2014 15:18 7,1 C 5,6 C 95 % 999,3 hPa 0,0 l/m 0 min 0 min 0,0 UV-I 53 W/m 5,1 km/h (1 Bft)
01.02.2014 15:20 7,1 C 5,6 C 94 % 999,3 hPa 0,0 l/m 0 min 0 min 0,0 UV-I 47 W/m 7,7 km/h (2 Bft)
01.02.2014 15:22 7,1 C 5,6 C 94 % 999,3 hPa 0,0 l/m 0 min 0 min 0,0 UV-I 53 W/m 5,1 km/h (1 Bft)
01.02.2014 15:24 7,1 C 5,6 C 94 % 999,3 hPa 0,0 l/m 0 min 0 min 0,0 UV-I 58 W/m 5,1 km/h (1 Bft)
01.02.2014 15:26 7,1 C 5,6 C 94 % 999,3 hPa 0,0 l/m 0 min 0 min 0,0 UV-I 53 W/m 0,0 km/h (0 Bft)
01.02.2014 15:28 7,2 C 5,6 C 94 % 999,3 hPa 0,0 l/m 0 min 0 min 0,0 UV-I 49 W/m 10,3 km/h (2 Bft)
01.02.2014 15:30 7,2 C 5,6 C 94 % 999,3 hPa 0,0 l/m 0 min 0 min 0,0 UV-I 49 W/m 7,7 km/h (2 Bft)
01.02.2014 15:32 7,2 C 5,6 C 94 % 999,3 hPa 0,0 l/m 0 min 0 min 0,0 UV-I 49 W/m 0,0 km/h (0 Bft)
01.02.2014 15:34 7,2 C 5,6 C 94 % 999,3 hPa 0,0 l/m 0 min 0 min 0,0 UV-I 46 W/m 7,7 km/h (2 Bft)
01.02.2014 15:36 7,2 C 5,6 C 94 % 999,3 hPa 0,0 l/m 0 min 0 min 0,0 UV-I 44 W/m 2,6 km/h (1 Bft)
01.02.2014 15:38 7,2 C 5,6 C 94 % 999,4 hPa 0,0 l/m 0 min 0 min 0,0 UV-I 46 W/m 5,1 km/h (1 Bft)
01.02.2014 15:40 7,2 C 5,6 C 94 % 999,4 hPa 0,0 l/m 0 min 0 min 0,0 UV-I 47 W/m 0,0 km/h (0 Bft)
01.02.2014 15:42 7,2 C 5,6 C 94 % 999,4 hPa 0,0 l/m 0 min 0 min 0,0 UV-I 49 W/m 2,6 km/h (1 Bft)
01.02.2014 15:44 7,2 C 5,6 C 94 % 999,5 hPa 0,0 l/m 0 min 0 min 0,0 UV-I 47 W/m 5,1 km/h (1 Bft)
01.02.2014 15:46 7,2 C 5,6 C 94 % 999,5 hPa 0,0 l/m 0 min 0 min 0,0 UV-I 44 W/m 10,3 km/h (2 Bft)
01.02.2014 15:48 7,2 C 5,6 C 94 % 999,6 hPa 0,0 l/m 0 min 0 min 0,0 UV-I 42 W/m 0,0 km/h (0 Bft)
01.02.2014 15:50 7,2 C 5,6 C 94 % 999,6 hPa 0,0 l/m 0 min 0 min 0,0 UV-I 40 W/m 5,1 km/h (1 Bft)
01.02.2014 15:52 7,2 C 5,6 C 93 % 999,6 hPa 0,0 l/m 0 min 0 min 0,0 UV-I 39 W/m 10,3 km/h (2 Bft)
01.02.2014 15:54 7,2 C 5,6 C 93 % 999,6 hPa 0,0 l/m 0 min 0 min 0,0 UV-I 37 W/m 10,3 km/h (2 Bft)
01.02.2014 15:56 7,3 C 5,0 C 93 % 999,6 hPa 0,0 l/m 0 min 0 min 0,0 UV-I 35 W/m 10,3 km/h (2 Bft)
01.02.2014 15:58 7,2 C 5,0 C 93 % 999,6 hPa 0,0 l/m 0 min 0 min 0,0 UV-I 33 W/m 10,3 km/h (2 Bft)
01.02.2014 16:00 7,3 C 5,0 C 92 % 999,6 hPa 0,0 l/m 0 min 0 min 0,0 UV-I 33 W/m 10,3 km/h (2 Bft)
01.02.2014 16:02 7,3 C 5,0 C 92 % 999,6 hPa 0,0 l/m 0 min 0 min 0,0 UV-I 32 W/m 7,7 km/h (2 Bft)
01.02.2014 16:04 7,3 C 5,0 C 92 % 999,7 hPa 0,0 l/m 0 min 0 min 0,0 UV-I 32 W/m 18,0 km/h (3 Bft)
01.02.2014 16:06 7,3 C 5,0 C 92 % 999,8 hPa 0,0 l/m 0 min 0 min 0,0 UV-I 33 W/m 2,6 km/h (1 Bft)
01.02.2014 16:08 7,3 C 5,0 C 92 % 999,8 hPa 0,0 l/m 0 min 0 min 0,0 UV-I 33 W/m 12,9 km/h (3 Bft)
01.02.2014 16:10 7,3 C 5,0 C 91 % 999,8 hPa 0,0 l/m 0 min 0 min 0,0 UV-I 33 W/m 7,7 km/h (2 Bft)
01.02.2014 16:12 7,3 C 5,0 C 91 % 999,8 hPa 0,0 l/m 0 min 0 min 0,0 UV-I 32 W/m 12,9 km/h (3 Bft)
01.02.2014 16:14 7,3 C 5,0 C 91 % 999,8 hPa 0,0 l/m 0 min 0 min 0,0 UV-I 30 W/m 10,3 km/h (2 Bft)
01.02.2014 16:16 7,3 C 5,0 C 91 % 999,9 hPa 0,0 l/m 0 min 0 min 0,0 UV-I 30 W/m 23,2 km/h (4 Bft)
01.02.2014 16:18 7,3 C 5,0 C 91 % 999,9 hPa 0,0 l/m 0 min 0 min 0,0 UV-I 30 W/m 7,7 km/h (2 Bft)
01.02.2014 16:20 7,3 C 5,0 C 91 % 999,9 hPa 0,0 l/m 0 min 0 min 0,0 UV-I 28 W/m 15,4 km/h (3 Bft)
01.02.2014 16:22 7,3 C 5,0 C 91 % 999,9 hPa 0,0 l/m 0 min 0 min 0,0 UV-I 28 W/m 10,3 km/h (2 Bft)
01.02.2014 16:24 7,3 C 5,0 C 90 % 1000,0 hPa 0,0 l/m 0 min 0 min 0,0 UV-I 26 W/m 12,9 km/h (3 Bft)
01.02.2014 16:26 7,3 C 5,0 C 90 % 999,9 hPa 0,0 l/m 0 min 0 min 0,0 UV-I 25 W/m 10,3 km/h (2 Bft)
01.02.2014 16:28 7,3 C 5,0 C 90 % 999,9 hPa 0,0 l/m 0 min 0 min 0,0 UV-I 23 W/m 15,4 km/h (3 Bft)
01.02.2014 16:30 7,3 C 5,0 C 90 % 1000,0 hPa 0,0 l/m 0 min 0 min 0,0 UV-I 23 W/m 5,1 km/h (1 Bft)
01.02.2014 16:32 7,3 C 5,0 C 90 % 1000,0 hPa 0,0 l/m 0 min 0 min 0,0 UV-I 21 W/m 5,1 km/h (1 Bft)
01.02.2014 16:34 7,3 C 5,0 C 90 % 1000,0 hPa 0,0 l/m 0 min 0 min 0,0 UV-I 21 W/m 10,3 km/h (2 Bft)
01.02.2014 16:36 7,2 C 5,0 C 90 % 1000,1 hPa 0,0 l/m 0 min 0 min 0,0 UV-I 21 W/m 10,3 km/h (2 Bft)
01.02.2014 16:38 7,3 C 5,0 C 89 % 1000,1 hPa 0,0 l/m 0 min 0 min 0,0 UV-I 19 W/m 15,4 km/h (3 Bft)
01.02.2014 16:40 7,2 C 5,0 C 89 % 1000,1 hPa 0,0 l/m 0 min 0 min 0,0 UV-I 18 W/m 12,9 km/h (3 Bft)
01.02.2014 16:42 7,2 C 5,0 C 89 % 1000,1 hPa 0,0 l/m 0 min 0 min 0,0 UV-I 18 W/m 15,4 km/h (3 Bft)
01.02.2014 16:44 7,2 C 5,0 C 89 % 1000,2 hPa 0,0 l/m 0 min 0 min 0,0 UV-I 16 W/m 15,4 km/h (3 Bft)
01.02.2014 16:46 7,2 C 5,0 C 89 % 1000,3 hPa 0,0 l/m 0 min 0 min 0,0 UV-I 14 W/m 7,7 km/h (2 Bft)
01.02.2014 16:48 7,2 C 5,0 C 89 % 1000,3 hPa 0,0 l/m 0 min 0 min 0,0 UV-I 14 W/m 12,9 km/h (3 Bft)
01.02.2014 16:50 7,2 C 5,0 C 88 % 1000,3 hPa 0,0 l/m 0 min 0 min 0,0 UV-I 12 W/m 2,6 km/h (1 Bft)
01.02.2014 16:52 7,2 C 4,4 C 88 % 1000,4 hPa 0,0 l/m 0 min 0 min 0,0 UV-I 12 W/m 12,9 km/h (3 Bft)
01.02.2014 16:54 7,2 C 4,4 C 88 % 1000,5 hPa 0,0 l/m 0 min 0 min 0,0 UV-I 12 W/m 15,4 km/h (3 Bft)
01.02.2014 16:56 7,2 C 4,4 C 88 % 1000,4 hPa 0,0 l/m 0 min 0 min 0,0 UV-I 12 W/m 10,3 km/h (2 Bft)
01.02.2014 16:58 7,2 C 4,4 C 88 % 1000,5 hPa 0,0 l/m 0 min 0 min 0,0 UV-I 11 W/m 18,0 km/h (3 Bft)
01.02.2014 17:00 7,2 C 4,4 C 87 % 1000,6 hPa 0,0 l/m 0 min 0 min 0,0 UV-I 11 W/m 12,9 km/h (3 Bft)
01.02.2014 17:02 7,2 C 4,4 C 87 % 1000,6 hPa 0,0 l/m 0 min 0 min 0,0 UV-I 9 W/m 12,9 km/h (3 Bft)
01.02.2014 17:04 7,2 C 4,4 C 87 % 1000,6 hPa 0,0 l/m 0 min 0 min 0,0 UV-I 9 W/m 15,4 km/h (3 Bft)
01.02.2014 17:06 7,2 C 4,4 C 87 % 1000,6 hPa 0,0 l/m 0 min 0 min 0,0 UV-I 7 W/m 23,2 km/h (4 Bft)
01.02.2014 17:08 7,1 C 4,4 C 87 % 1000,6 hPa 0,0 l/m 0 min 0 min 0,0 UV-I 7 W/m 7,7 km/h (2 Bft)
01.02.2014 17:10 7,1 C 4,4 C 87 % 1000,6 hPa 0,0 l/m 0 min 0 min 0,0 UV-I 5 W/m 2,6 km/h (1 Bft)
01.02.2014 17:12 7,1 C 4,4 C 87 % 1000,7 hPa 0,0 l/m 0 min 0 min 0,0 UV-I 5 W/m 2,6 km/h (1 Bft)
01.02.2014 17:14 7,1 C 4,4 C 87 % 1000,8 hPa 0,0 l/m 0 min 0 min 0,0 UV-I 5 W/m 18,0 km/h (3 Bft)
01.02.2014 17:16 7,1 C 4,4 C 87 % 1000,8 hPa 0,0 l/m 0 min 0 min 0,0 UV-I 0 W/m 2,6 km/h (1 Bft)
01.02.2014 17:18 7,1 C 4,4 C 87 % 1000,8 hPa 0,0 l/m 0 min 0 min 0,0 UV-I 0 W/m 12,9 km/h (3 Bft)
01.02.2014 17:20 7,1 C 4,4 C 87 % 1000,8 hPa 0,0 l/m 0 min 0 min 0,0 UV-I 0 W/m 0,0 km/h (0 Bft)
01.02.2014 17:22 7,0 C 4,4 C 87 % 1000,9 hPa 0,0 l/m 0 min 0 min 0,0 UV-I 0 W/m 0,0 km/h (0 Bft)
01.02.2014 17:24 7,0 C 4,4 C 87 % 1001,0 hPa 0,0 l/m 0 min 0 min 0,0 UV-I 5 W/m 5,1 km/h (1 Bft)
01.02.2014 17:26 6,9 C 4,4 C 87 % 1001,1 hPa 0,0 l/m 0 min 0 min 0,0 UV-I 9 W/m 10,3 km/h (2 Bft)
01.02.2014 17:28 6,9 C 4,4 C 88 % 1001,1 hPa 0,0 l/m 0 min 0 min 0,0 UV-I 11 W/m 0,0 km/h (0 Bft)
01.02.2014 17:30 6,9 C 4,4 C 88 % 1001,2 hPa 0,0 l/m 0 min 0 min 0,0 UV-I 9 W/m 15,4 km/h (3 Bft)
01.02.2014 17:32 6,9 C 4,4 C 88 % 1001,2 hPa 0,0 l/m 0 min 0 min 0,0 UV-I 7 W/m 10,3 km/h (2 Bft)
01.02.2014 17:34 6,9 C 4,4 C 88 % 1001,3 hPa 0,0 l/m 0 min 0 min 0,0 UV-I 5 W/m 20,6 km/h (4 Bft)
01.02.2014 17:36 6,9 C 4,4 C 88 % 1001,3 hPa 0,0 l/m 0 min 0 min 0,0 UV-I 0 W/m 5,1 km/h (1 Bft)
01.02.2014 17:38 6,9 C 4,4 C 87 % 1001,3 hPa 0,0 l/m 0 min 0 min 0,0 UV-I 0 W/m 10,3 km/h (2 Bft)
01.02.2014 17:40 6,9 C 4,4 C 87 % 1001,4 hPa 0,0 l/m 0 min 0 min 0,0 UV-I 0 W/m 0,0 km/h (0 Bft)
01.02.2014 17:42 6,9 C 4,4 C 87 % 1001,4 hPa 0,0 l/m 0 min 0 min 0,0 UV-I 0 W/m 0,0 km/h (0 Bft)
01.02.2014 17:44 6,9 C 4,4 C 87 % 1001,4 hPa 0,0 l/m 0 min 0 min 0,0 UV-I 0 W/m 0,0 km/h (0 Bft)
01.02.2014 17:46 6,9 C 4,4 C 87 % 1001,5 hPa 0,0 l/m 0 min 0 min 0,0 UV-I 0 W/m 0,0 km/h (0 Bft)
01.02.2014 17:48 6,8 C 4,4 C 87 % 1001,5 hPa 0,0 l/m 0 min 0 min 0,0 UV-I 0 W/m 10,3 km/h (2 Bft)
01.02.2014 17:50 6,8 C 4,4 C 87 % 1001,6 hPa 0,0 l/m 0 min 0 min 0,0 UV-I 0 W/m 7,7 km/h (2 Bft)
01.02.2014 17:52 6,8 C 4,4 C 87 % 1001,7 hPa 0,0 l/m 0 min 0 min 0,0 UV-I 0 W/m 0,0 km/h (0 Bft)
01.02.2014 17:54 6,8 C 4,4 C 87 % 1001,7 hPa 0,0 l/m 0 min 0 min 0,0 UV-I 0 W/m 0,0 km/h (0 Bft)
01.02.2014 17:56 6,8 C 4,4 C 88 % 1001,7 hPa 0,0 l/m 0 min 0 min 0,0 UV-I 0 W/m 7,7 km/h (2 Bft)
01.02.2014 17:58 6,8 C 4,4 C 88 % 1001,8 hPa 0,0 l/m 0 min 0 min 0,0 UV-I 0 W/m 7,7 km/h (2 Bft)
01.02.2014 18:00 6,8 C 4,4 C 88 % 1001,9 hPa 0,0 l/m 0 min 0 min 0,0 UV-I 0 W/m 10,3 km/h (2 Bft)
01.02.2014 18:02 6,8 C 4,4 C 88 % 1001,9 hPa 0,0 l/m 0 min 0 min 0,0 UV-I 0 W/m 12,9 km/h (3 Bft)
01.02.2014 18:04 6,8 C 4,4 C 88 % 1001,8 hPa 0,0 l/m 0 min 0 min 0,0 UV-I 0 W/m 2,6 km/h (1 Bft)
01.02.2014 18:06 6,8 C 4,4 C 88 % 1001,8 hPa 0,0 l/m 0 min 0 min 0,0 UV-I 0 W/m 7,7 km/h (2 Bft)
01.02.2014 18:08 6,7 C 4,4 C 88 % 1001,9 hPa 0,0 l/m 0 min 0 min 0,0 UV-I 0 W/m 5,1 km/h (1 Bft)
01.02.2014 18:10 6,7 C 4,4 C 88 % 1002,0 hPa 0,0 l/m 0 min 0 min 0,0 UV-I 0 W/m 12,9 km/h (3 Bft)
01.02.2014 18:12 6,7 C 4,4 C 88 % 1001,9 hPa 0,0 l/m 0 min 0 min 0,0 UV-I 0 W/m 5,1 km/h (1 Bft)
01.02.2014 18:14 6,7 C 4,4 C 88 % 1002,0 hPa 0,0 l/m 0 min 0 min 0,0 UV-I 0 W/m 12,9 km/h (3 Bft)
01.02.2014 18:16 6,7 C 4,4 C 88 % 1002,0 hPa 0,0 l/m 0 min 0 min 0,0 UV-I 0 W/m 10,3 km/h (2 Bft)
01.02.2014 18:18 6,7 C 3,9 C 88 % 1001,9 hPa 0,0 l/m 0 min 0 min 0,0 UV-I 0 W/m 10,3 km/h (2 Bft)
01.02.2014 18:20 6,7 C 3,9 C 92 % 1001,9 hPa 0,0 l/m 0 min 0 min 0,0 UV-I 0 W/m 7,7 km/h (2 Bft)
01.02.2014 18:22 6,7 C 3,9 C 88 % 1001,9 hPa 0,0 l/m 0 min 0 min 0,0 UV-I 0 W/m 2,6 km/h (1 Bft)
01.02.2014 18:24 6,7 C 3,9 C 88 % 1002,0 hPa 0,0 l/m 0 min 0 min 0,0 UV-I 0 W/m 12,9 km/h (3 Bft)
01.02.2014 18:26 6,6 C 3,9 C 88 % 1002,0 hPa 0,0 l/m 0 min 0 min 0,0 UV-I 0 W/m 0,0 km/h (0 Bft)
01.02.2014 18:28 6,6 C 3,9 C 88 % 1001,9 hPa 0,0 l/m 0 min 0 min 0,0 UV-I 0 W/m 5,1 km/h (1 Bft)
01.02.2014 18:30 6,6 C 3,9 C 88 % 1002,0 hPa 0,0 l/m 0 min 0 min 0,0 UV-I 0 W/m 7,7 km/h (2 Bft)
01.02.2014 18:32 6,6 C 3,9 C 88 % 1002,0 hPa 0,0 l/m 0 min 0 min 0,0 UV-I 0 W/m 7,7 km/h (2 Bft)
01.02.2014 18:34 6,6 C 3,9 C 88 % 1002,1 hPa 0,0 l/m 0 min 0 min 0,0 UV-I 0 W/m 7,7 km/h (2 Bft)
01.02.2014 18:36 6,6 C 3,9 C 88 % 1002,1 hPa 0,0 l/m 0 min 0 min 0,0 UV-I 0 W/m 12,9 km/h (3 Bft)
01.02.2014 18:38 6,6 C 3,9 C 87 % 1002,0 hPa 0,0 l/m 0 min 0 min 0,0 UV-I 0 W/m 2,6 km/h (1 Bft)
01.02.2014 18:40 6,6 C 3,9 C 88 % 1002,2 hPa 0,0 l/m 0 min 0 min 0,0 UV-I 0 W/m 12,9 km/h (3 Bft)
01.02.2014 18:42 6,6 C 3,9 C 87 % 1002,1 hPa 0,0 l/m 0 min 0 min 0,0 UV-I 0 W/m 0,0 km/h (0 Bft)
01.02.2014 18:44 6,6 C 3,9 C 87 % 1002,2 hPa 0,0 l/m 0 min 0 min 0,0 UV-I 0 W/m 10,3 km/h (2 Bft)
01.02.2014 18:46 6,5 C 3,9 C 87 % 1002,3 hPa 0,0 l/m 0 min 0 min 0,0 UV-I 0 W/m 7,7 km/h (2 Bft)
01.02.2014 18:48 6,5 C 3,9 C 87 % 1002,3 hPa 0,0 l/m 0 min 0 min 0,0 UV-I 0 W/m 7,7 km/h (2 Bft)
01.02.2014 18:50 6,4 C 3,9 C 87 % 1002,3 hPa 0,0 l/m 0 min 0 min 0,0 UV-I 0 W/m 10,3 km/h (2 Bft)
01.02.2014 18:52 6,4 C 3,9 C 87 % 1002,3 hPa 0,0 l/m 0 min 0 min 0,0 UV-I 0 W/m 10,3 km/h (2 Bft)
01.02.2014 18:54 6,4 C 3,9 C 87 % 1002,4 hPa 0,0 l/m 0 min 0 min 0,0 UV-I 0 W/m 10,3 km/h (2 Bft)
01.02.2014 18:56 6,4 C 3,9 C 87 % 1002,3 hPa 0,0 l/m 0 min 0 min 0,0 UV-I 0 W/m 2,6 km/h (1 Bft)
01.02.2014 18:58 6,4 C 3,9 C 87 % 1002,4 hPa 0,0 l/m 0 min 0 min 0,0 UV-I 0 W/m 10,3 km/h (2 Bft)
01.02.2014 19:00 6,3 C 3,3 C 87 % 1002,4 hPa 0,0 l/m 0 min 0 min 0,0 UV-I 0 W/m 5,1 km/h (1 Bft)
01.02.2014 19:02 6,3 C 3,3 C 87 % 1002,3 hPa 0,0 l/m 0 min 0 min 0,0 UV-I 0 W/m 2,6 km/h (1 Bft)
01.02.2014 19:04 6,2 C 3,3 C 87 % 1002,4 hPa 0,0 l/m 0 min 0 min 0,0 UV-I 0 W/m 0,0 km/h (0 Bft)
01.02.2014 19:06 6,2 C 3,3 C 87 % 1002,4 hPa 0,0 l/m 0 min 0 min 0,0 UV-I 0 W/m 2,6 km/h (1 Bft)
01.02.2014 19:08 6,2 C 3,3 C 87 % 1002,4 hPa 0,0 l/m 0 min 0 min 0,0 UV-I 0 W/m 12,9 km/h (3 Bft)
01.02.2014 19:10 6,2 C 3,3 C 87 % 1002,5 hPa 0,0 l/m 0 min 0 min 0,0 UV-I 0 W/m 2,6 km/h (1 Bft)
01.02.2014 19:12 6,2 C 3,3 C 86 % 1002,6 hPa 0,0 l/m 0 min 0 min 0,0 UV-I 0 W/m 0,0 km/h (0 Bft)
01.02.2014 19:14 6,2 C 3,3 C 86 % 1002,7 hPa 0,0 l/m 0 min 0 min 0,0 UV-I 0 W/m 15,4 km/h (3 Bft)
01.02.2014 19:16 6,2 C 3,3 C 86 % 1002,7 hPa 0,0 l/m 0 min 0 min 0,0 UV-I 0 W/m 15,4 km/h (3 Bft)
01.02.2014 19:18 6,2 C 3,3 C 85 % 1002,8 hPa 0,0 l/m 0 min 0 min 0,0 UV-I 0 W/m 15,4 km/h (3 Bft)
01.02.2014 19:20 6,2 C 3,3 C 84 % 1002,8 hPa 0,0 l/m 0 min 0 min 0,0 UV-I 0 W/m 12,9 km/h (3 Bft)
01.02.2014 19:22 6,2 C 3,3 C 84 % 1002,9 hPa 0,0 l/m 0 min 0 min 0,0 UV-I 0 W/m 10,3 km/h (2 Bft)
01.02.2014 19:24 6,2 C 3,3 C 84 % 1002,9 hPa 0,0 l/m 0 min 0 min 0,0 UV-I 0 W/m 7,7 km/h (2 Bft)
01.02.2014 19:26 6,2 C 3,3 C 83 % 1002,9 hPa 0,0 l/m 0 min 0 min 0,0 UV-I 0 W/m 5,1 km/h (1 Bft)
01.02.2014 19:28 6,2 C 3,3 C 83 % 1002,9 hPa 0,0 l/m 0 min 0 min 0,0 UV-I 0 W/m 7,7 km/h (2 Bft)
01.02.2014 19:30 6,2 C 3,3 C 83 % 1002,8 hPa 0,0 l/m 0 min 0 min 0,0 UV-I 0 W/m 7,7 km/h (2 Bft)
01.02.2014 19:32 6,2 C 3,3 C 83 % 1003,0 hPa 0,0 l/m 0 min 0 min 0,0 UV-I 0 W/m 7,7 km/h (2 Bft)
01.02.2014 19:34 6,1 C 3,3 C 83 % 1002,9 hPa 0,0 l/m 0 min 0 min 0,0 UV-I 0 W/m 5,1 km/h (1 Bft)
01.02.2014 19:36 6,1 C 3,3 C 83 % 1003,0 hPa 0,0 l/m 0 min 0 min 0,0 UV-I 0 W/m 10,3 km/h (2 Bft)
01.02.2014 19:38 6,0 C 3,3 C 83 % 1003,0 hPa 0,0 l/m 0 min 0 min 0,0 UV-I 0 W/m 5,1 km/h (1 Bft)
01.02.2014 19:40 6,0 C 3,3 C 84 % 1003,0 hPa 0,0 l/m 0 min 0 min 0,0 UV-I 0 W/m 5,1 km/h (1 Bft)
01.02.2014 19:42 6,0 C 3,3 C 84 % 1003,0 hPa 0,0 l/m 0 min 0 min 0,0 UV-I 0 W/m 7,7 km/h (2 Bft)
01.02.2014 19:44 5,9 C 3,3 C 84 % 1003,1 hPa 0,0 l/m 0 min 0 min 0,0 UV-I 0 W/m 7,7 km/h (2 Bft)
01.02.2014 19:46 5,9 C 3,3 C 84 % 1003,1 hPa 0,0 l/m 0 min 0 min 0,0 UV-I 0 W/m 7,7 km/h (2 Bft)
01.02.2014 19:48 5,9 C 3,3 C 85 % 1003,1 hPa 0,0 l/m 0 min 0 min 0,0 UV-I 0 W/m 7,7 km/h (2 Bft)
01.02.2014 19:50 5,9 C 3,3 C 85 % 1003,1 hPa 0,0 l/m 0 min 0 min 0,0 UV-I 0 W/m 7,7 km/h (2 Bft)
01.02.2014 19:52 5,9 C 3,3 C 85 % 1003,1 hPa 0,0 l/m 0 min 0 min 0,0 UV-I 0 W/m 5,1 km/h (1 Bft)
01.02.2014 19:54 5,9 C 3,3 C 85 % 1003,1 hPa 0,0 l/m 0 min 0 min 0,0 UV-I 0 W/m 7,7 km/h (2 Bft)
01.02.2014 19:56 5,8 C 3,3 C 85 % 1003,1 hPa 0,0 l/m 0 min 0 min 0,0 UV-I 0 W/m 2,6 km/h (1 Bft)
01.02.2014 19:58 5,8 C 3,3 C 86 % 1003,1 hPa 0,0 l/m 0 min 0 min 0,0 UV-I 0 W/m 0,0 km/h (0 Bft)
01.02.2014 20:00 5,8 C 3,3 C 86 % 1003,2 hPa 0,0 l/m 0 min 0 min 0,0 UV-I 0 W/m 5,1 km/h (1 Bft)
01.02.2014 20:02 5,8 C 3,3 C 86 % 1003,1 hPa 0,0 l/m 0 min 0 min 0,0 UV-I 0 W/m 12,9 km/h (3 Bft)
01.02.2014 20:04 5,8 C 3,3 C 86 % 1003,2 hPa 0,0 l/m 0 min 0 min 0,0 UV-I 0 W/m 7,7 km/h (2 Bft)
01.02.2014 20:06 5,8 C 3,3 C 87 % 1003,2 hPa 0,0 l/m 0 min 0 min 0,0 UV-I 0 W/m 10,3 km/h (2 Bft)
01.02.2014 20:08 5,8 C 3,3 C 87 % 1003,3 hPa 0,0 l/m 0 min 0 min 0,0 UV-I 0 W/m 10,3 km/h (2 Bft)
01.02.2014 20:10 5,8 C 3,3 C 87 % 1003,2 hPa 0,0 l/m 0 min 0 min 0,0 UV-I 0 W/m 7,7 km/h (2 Bft)
01.02.2014 20:12 5,8 C 3,3 C 87 % 1003,3 hPa 0,0 l/m 0 min 0 min 0,0 UV-I 0 W/m 2,6 km/h (1 Bft)
01.02.2014 20:14 5,7 C 3,3 C 88 % 1003,3 hPa 0,0 l/m 0 min 0 min 0,0 UV-I 0 W/m 0,0 km/h (0 Bft)
01.02.2014 20:16 5,7 C 3,3 C 88 % 1003,3 hPa 0,0 l/m 0 min 0 min 0,0 UV-I 0 W/m 7,7 km/h (2 Bft)
01.02.2014 20:18 5,7 C 3,3 C 88 % 1003,3 hPa 0,0 l/m 0 min 0 min 0,0 UV-I 0 W/m 0,0 km/h (0 Bft)
01.02.2014 20:20 5,6 C 3,3 C 88 % 1003,4 hPa 0,0 l/m 0 min 0 min 0,0 UV-I 0 W/m 5,1 km/h (1 Bft)
01.02.2014 20:22 5,6 C 3,3 C 88 % 1003,4 hPa 0,0 l/m 0 min 0 min 0,0 UV-I 0 W/m 5,1 km/h (1 Bft)
01.02.2014 20:24 5,6 C 3,3 C 88 % 1003,4 hPa 0,0 l/m 0 min 0 min 0,0 UV-I 0 W/m 2,6 km/h (1 Bft)
01.02.2014 20:26 5,6 C 3,3 C 88 % 1003,4 hPa 0,0 l/m 0 min 0 min 0,0 UV-I 0 W/m 5,1 km/h (1 Bft)
01.02.2014 20:28 5,5 C 2,8 C 89 % 1003,5 hPa 0,0 l/m 0 min 0 min 0,0 UV-I 0 W/m 0,0 km/h (0 Bft)
01.02.2014 20:30 5,4 C 2,8 C 89 % 1003,5 hPa 0,0 l/m 0 min 0 min 0,0 UV-I 0 W/m 2,6 km/h (1 Bft)
01.02.2014 20:32 5,4 C 2,8 C 89 % 1003,5 hPa 0,0 l/m 0 min 0 min 0,0 UV-I 0 W/m 5,1 km/h (1 Bft)
01.02.2014 20:34 5,3 C 2,8 C 89 % 1003,5 hPa 0,0 l/m 0 min 0 min 0,0 UV-I 0 W/m 5,1 km/h (1 Bft)
01.02.2014 20:36 5,2 C 2,8 C 89 % 1003,5 hPa 0,0 l/m 0 min 0 min 0,0 UV-I 0 W/m 5,1 km/h (1 Bft)
01.02.2014 20:38 5,1 C 2,8 C 89 % 1003,5 hPa 0,0 l/m 0 min 0 min 0,0 UV-I 0 W/m 10,3 km/h (2 Bft)
01.02.2014 20:40 5,1 C 2,8 C 89 % 1003,6 hPa 0,0 l/m 0 min 0 min 0,0 UV-I 0 W/m 0,0 km/h (0 Bft)
01.02.2014 20:42 5,0 C 2,8 C 89 % 1003,6 hPa 0,0 l/m 0 min 0 min 0,0 UV-I 0 W/m 0,0 km/h (0 Bft)
01.02.2014 20:44 5,0 C 2,8 C 90 % 1003,6 hPa 0,0 l/m 0 min 0 min 0,0 UV-I 0 W/m 0,0 km/h (0 Bft)
01.02.2014 20:46 4,9 C 2,8 C 90 % 1003,6 hPa 0,0 l/m 0 min 0 min 0,0 UV-I 0 W/m 2,6 km/h (1 Bft)
01.02.2014 20:48 4,9 C 2,8 C 90 % 1003,7 hPa 0,0 l/m 0 min 0 min 0,0 UV-I 0 W/m 5,1 km/h (1 Bft)
01.02.2014 20:50 4,9 C 2,8 C 90 % 1003,6 hPa 0,0 l/m 0 min 0 min 0,0 UV-I 0 W/m 2,6 km/h (1 Bft)
01.02.2014 20:52 5,0 C 2,8 C 95 % 1003,6 hPa 0,0 l/m 0 min 0 min 0,0 UV-I 0 W/m 5,1 km/h (1 Bft)
01.02.2014 20:54 5,1 C 2,8 C 91 % 1003,7 hPa 0,0 l/m 0 min 0 min 0,0 UV-I 0 W/m 5,1 km/h (1 Bft)
01.02.2014 20:56 5,2 C 2,8 C 91 % 1003,7 hPa 0,0 l/m 0 min 0 min 0,0 UV-I 0 W/m 7,7 km/h (2 Bft)
01.02.2014 20:58 5,2 C 2,8 C 91 % 1003,7 hPa 0,0 l/m 0 min 0 min 0,0 UV-I 0 W/m 7,7 km/h (2 Bft)
01.02.2014 21:00 5,3 C 2,8 C 91 % 1003,7 hPa 0,0 l/m 0 min 0 min 0,0 UV-I 0 W/m 0,0 km/h (0 Bft)
01.02.2014 21:02 5,3 C 3,3 C 90 % 1003,8 hPa 0,0 l/m 0 min 0 min 0,0 UV-I 0 W/m 7,7 km/h (2 Bft)
01.02.2014 21:04 5,4 C 3,3 C 90 % 1003,9 hPa 0,0 l/m 0 min 0 min 0,0 UV-I 0 W/m 7,7 km/h (2 Bft)
01.02.2014 21:06 5,5 C 3,3 C 90 % 1003,8 hPa 0,0 l/m 0 min 0 min 0,0 UV-I 0 W/m 0,0 km/h (0 Bft)
01.02.2014 21:08 5,5 C 3,3 C 90 % 1003,8 hPa 0,0 l/m 0 min 0 min 0,0 UV-I 0 W/m 7,7 km/h (2 Bft)
01.02.2014 21:10 5,6 C 3,3 C 90 % 1003,9 hPa 0,0 l/m 0 min 0 min 0,0 UV-I 0 W/m 10,3 km/h (2 Bft)
01.02.2014 21:12 5,6 C 3,3 C 89 % 1003,9 hPa 0,0 l/m 0 min 0 min 0,0 UV-I 0 W/m 12,9 km/h (3 Bft)
01.02.2014 21:14 5,7 C 3,3 C 89 % 1004,0 hPa 0,0 l/m 0 min 0 min 0,0 UV-I 0 W/m 7,7 km/h (2 Bft)
01.02.2014 21:16 5,7 C 3,3 C 89 % 1004,0 hPa 0,0 l/m 0 min 0 min 0,0 UV-I 0 W/m 0,0 km/h (0 Bft)
01.02.2014 21:18 5,7 C 3,3 C 89 % 1003,9 hPa 0,0 l/m 0 min 0 min 0,0 UV-I 0 W/m 7,7 km/h (2 Bft)
01.02.2014 21:20 5,7 C 3,3 C 88 % 1004,0 hPa 0,0 l/m 0 min 0 min 0,0 UV-I 0 W/m 2,6 km/h (1 Bft)
01.02.2014 21:22 5,7 C 3,3 C 88 % 1004,0 hPa 0,0 l/m 0 min 0 min 0,0 UV-I 0 W/m 10,3 km/h (2 Bft)
01.02.2014 21:24 5,7 C 3,3 C 88 % 1004,1 hPa 0,0 l/m 0 min 0 min 0,0 UV-I 0 W/m 0,0 km/h (0 Bft)
01.02.2014 21:26 5,7 C 3,3 C 88 % 1004,1 hPa 0,0 l/m 0 min 0 min 0,0 UV-I 0 W/m 0,0 km/h (0 Bft)
01.02.2014 21:28 5,6 C 3,3 C 88 % 1004,1 hPa 0,0 l/m 0 min 0 min 0,0 UV-I 0 W/m 10,3 km/h (2 Bft)
01.02.2014 21:30 5,6 C 3,3 C 88 % 1004,1 hPa 0,0 l/m 0 min 0 min 0,0 UV-I 0 W/m 10,3 km/h (2 Bft)
01.02.2014 21:32 5,6 C 3,3 C 88 % 1004,1 hPa 0,0 l/m 0 min 0 min 0,0 UV-I 0 W/m 0,0 km/h (0 Bft)
01.02.2014 21:34 5,6 C 3,3 C 88 % 1004,1 hPa 0,0 l/m 0 min 0 min 0,0 UV-I 0 W/m 0,0 km/h (0 Bft)
01.02.2014 21:36 5,5 C 3,3 C 88 % 1004,2 hPa 0,0 l/m 0 min 0 min 0,0 UV-I 0 W/m 0,0 km/h (0 Bft)
01.02.2014 21:38 5,4 C 2,8 C 88 % 1004,2 hPa 0,0 l/m 0 min 0 min 0,0 UV-I 0 W/m 0,0 km/h (0 Bft)
01.02.2014 21:40 5,3 C 2,8 C 88 % 1004,2 hPa 0,0 l/m 0 min 0 min 0,0 UV-I 0 W/m 2,6 km/h (1 Bft)
01.02.2014 21:42 5,3 C 2,8 C 88 % 1004,2 hPa 0,0 l/m 0 min 0 min 0,0 UV-I 0 W/m 0,0 km/h (0 Bft)
01.02.2014 21:44 5,2 C 2,8 C 89 % 1004,2 hPa 0,0 l/m 0 min 0 min 0,0 UV-I 0 W/m 2,6 km/h (1 Bft)
01.02.2014 21:46 5,2 C 2,8 C 89 % 1004,2 hPa 0,0 l/m 0 min 0 min 0,0 UV-I 0 W/m 0,0 km/h (0 Bft)
01.02.2014 21:48 5,1 C 2,8 C 89 % 1004,1 hPa 0,0 l/m 0 min 0 min 0,0 UV-I 0 W/m 0,0 km/h (0 Bft)
01.02.2014 21:50 5,1 C 2,8 C 89 % 1004,1 hPa 0,0 l/m 0 min 0 min 0,0 UV-I 0 W/m 7,7 km/h (2 Bft)
01.02.2014 21:52 4,9 C 2,8 C 89 % 1004,1 hPa 0,0 l/m 0 min 0 min 0,0 UV-I 0 W/m 2,6 km/h (1 Bft)
01.02.2014 21:54 4,9 C 2,8 C 89 % 1004,1 hPa 0,0 l/m 0 min 0 min 0,0 UV-I 0 W/m 7,7 km/h (2 Bft)
01.02.2014 21:56 4,8 C 2,8 C 89 % 1004,2 hPa 0,0 l/m 0 min 0 min 0,0 UV-I 0 W/m 10,3 km/h (2 Bft)
01.02.2014 21:58 4,8 C 2,8 C 90 % 1004,2 hPa 0,0 l/m 0 min 0 min 0,0 UV-I 0 W/m 5,1 km/h (1 Bft)
01.02.2014 22:00 4,7 C 2,8 C 90 % 1004,3 hPa 0,0 l/m 0 min 0 min 0,0 UV-I 0 W/m 7,7 km/h (2 Bft)
01.02.2014 22:02 4,7 C 2,8 C 90 % 1004,3 hPa 0,0 l/m 0 min 0 min 0,0 UV-I 0 W/m 5,1 km/h (1 Bft)
01.02.2014 22:04 4,7 C 2,8 C 90 % 1004,3 hPa 0,0 l/m 0 min 0 min 0,0 UV-I 0 W/m 2,6 km/h (1 Bft)
01.02.2014 22:06 4,6 C 2,8 C 90 % 1004,4 hPa 0,0 l/m 0 min 0 min 0,0 UV-I 0 W/m 5,1 km/h (1 Bft)
01.02.2014 22:08 4,6 C 2,8 C 90 % 1004,4 hPa 0,0 l/m 0 min 0 min 0,0 UV-I 0 W/m 5,1 km/h (1 Bft)
01.02.2014 22:10 4,6 C 2,8 C 90 % 1004,4 hPa 0,0 l/m 0 min 0 min 0,0 UV-I 0 W/m 7,7 km/h (2 Bft)
01.02.2014 22:12 4,6 C 2,8 C 91 % 1004,4 hPa 0,0 l/m 0 min 0 min 0,0 UV-I 0 W/m 7,7 km/h (2 Bft)
01.02.2014 22:14 4,6 C 2,8 C 91 % 1004,5 hPa 0,0 l/m 0 min 0 min 0,0 UV-I 0 W/m 5,1 km/h (1 Bft)
01.02.2014 22:16 4,6 C 2,8 C 95 % 1004,5 hPa 0,0 l/m 0 min 0 min 0,0 UV-I 0 W/m 2,6 km/h (1 Bft)
01.02.2014 22:18 4,6 C 2,8 C 91 % 1004,5 hPa 0,0 l/m 0 min 0 min 0,0 UV-I 0 W/m 5,1 km/h (1 Bft)
01.02.2014 22:20 4,6 C 2,8 C 91 % 1004,6 hPa 0,0 l/m 0 min 0 min 0,0 UV-I 0 W/m 2,6 km/h (1 Bft)
01.02.2014 22:22 4,6 C 2,8 C 91 % 1004,6 hPa 0,0 l/m 0 min 0 min 0,0 UV-I 0 W/m 7,7 km/h (2 Bft)
01.02.2014 22:24 4,6 C 2,8 C 91 % 1004,6 hPa 0,0 l/m 0 min 0 min 0,0 UV-I 0 W/m 5,1 km/h (1 Bft)
01.02.2014 22:26 4,6 C 2,8 C 91 % 1004,7 hPa 0,0 l/m 0 min 0 min 0,0 UV-I 0 W/m 7,7 km/h (2 Bft)
01.02.2014 22:28 4,6 C 2,8 C 91 % 1004,7 hPa 0,0 l/m 0 min 0 min 0,0 UV-I 0 W/m 10,3 km/h (2 Bft)
01.02.2014 22:30 4,6 C 2,8 C 91 % 1004,7 hPa 0,0 l/m 0 min 0 min 0,0 UV-I 0 W/m 7,7 km/h (2 Bft)
01.02.2014 22:32 4,6 C 2,8 C 91 % 1004,7 hPa 0,0 l/m 0 min 0 min 0,0 UV-I 0 W/m 10,3 km/h (2 Bft)
01.02.2014 22:34 4,5 C 2,8 C 91 % 1004,8 hPa 0,0 l/m 0 min 0 min 0,0 UV-I 0 W/m 7,7 km/h (2 Bft)
01.02.2014 22:36 4,5 C 2,8 C 91 % 1004,8 hPa 0,0 l/m 0 min 0 min 0,0 UV-I 0 W/m 10,3 km/h (2 Bft)
01.02.2014 22:38 4,5 C 2,8 C 91 % 1004,7 hPa 0,0 l/m 0 min 0 min 0,0 UV-I 0 W/m 12,9 km/h (3 Bft)
01.02.2014 22:40 4,5 C 2,8 C 91 % 1004,8 hPa 0,0 l/m 0 min 0 min 0,0 UV-I 0 W/m 10,3 km/h (2 Bft)
01.02.2014 22:42 4,5 C 2,8 C 91 % 1004,8 hPa 0,0 l/m 0 min 0 min 0,0 UV-I 0 W/m 7,7 km/h (2 Bft)
01.02.2014 22:44 4,5 C 2,8 C 91 % 1004,8 hPa 0,0 l/m 0 min 0 min 0,0 UV-I 0 W/m 2,6 km/h (1 Bft)
01.02.2014 22:46 4,4 C 2,8 C 91 % 1004,8 hPa 0,0 l/m 0 min 0 min 0,0 UV-I 0 W/m 7,7 km/h (2 Bft)
01.02.2014 22:48 4,4 C 2,8 C 91 % 1004,9 hPa 0,0 l/m 0 min 0 min 0,0 UV-I 0 W/m 2,6 km/h (1 Bft)
01.02.2014 22:50 4,4 C 2,8 C 91 % 1004,8 hPa 0,0 l/m 0 min 0 min 0,0 UV-I 0 W/m 5,1 km/h (1 Bft)
01.02.2014 22:52 4,4 C 2,8 C 91 % 1004,8 hPa 0,0 l/m 0 min 0 min 0,0 UV-I 0 W/m 5,1 km/h (1 Bft)
01.02.2014 22:54 4,4 C 2,8 C 91 % 1004,9 hPa 0,0 l/m 0 min 0 min 0,0 UV-I 0 W/m 12,9 km/h (3 Bft)
01.02.2014 22:56 4,4 C 2,8 C 91 % 1004,9 hPa 0,0 l/m 0 min 0 min 0,0 UV-I 0 W/m 10,3 km/h (2 Bft)
01.02.2014 22:58 4,4 C 2,8 C 91 % 1004,9 hPa 0,0 l/m 0 min 0 min 0,0 UV-I 0 W/m 10,3 km/h (2 Bft)
01.02.2014 23:00 4,4 C 2,8 C 91 % 1004,9 hPa 0,0 l/m 0 min 0 min 0,0 UV-I 0 W/m 5,1 km/h (1 Bft)
01.02.2014 23:02 4,4 C 2,8 C 91 % 1004,9 hPa 0,0 l/m 0 min 0 min 0,0 UV-I 0 W/m 0,0 km/h (0 Bft)
01.02.2014 23:04 4,4 C 2,8 C 91 % 1004,8 hPa 0,0 l/m 0 min 0 min 0,0 UV-I 0 W/m 12,9 km/h (3 Bft)
01.02.2014 23:06 4,4 C 2,8 C 91 % 1004,9 hPa 0,0 l/m 0 min 0 min 0,0 UV-I 0 W/m 12,9 km/h (3 Bft)
01.02.2014 23:08 4,4 C 2,8 C 91 % 1004,9 hPa 0,0 l/m 0 min 0 min 0,0 UV-I 0 W/m 12,9 km/h (3 Bft)
01.02.2014 23:10 4,5 C 2,8 C 91 % 1005,0 hPa 0,0 l/m 0 min 0 min 0,0 UV-I 0 W/m 18,0 km/h (3 Bft)
01.02.2014 23:12 4,5 C 2,8 C 90 % 1005,0 hPa 0,0 l/m 0 min 0 min 0,0 UV-I 0 W/m 15,4 km/h (3 Bft)
01.02.2014 23:14 4,6 C 2,8 C 90 % 1005,0 hPa 0,0 l/m 0 min 0 min 0,0 UV-I 0 W/m 10,3 km/h (2 Bft)
01.02.2014 23:16 4,6 C 2,8 C 90 % 1005,0 hPa 0,0 l/m 0 min 0 min 0,0 UV-I 0 W/m 12,9 km/h (3 Bft)
01.02.2014 23:18 4,7 C 2,8 C 90 % 1005,0 hPa 0,0 l/m 0 min 0 min 0,0 UV-I 0 W/m 18,0 km/h (3 Bft)
01.02.2014 23:20 4,7 C 2,8 C 90 % 1005,0 hPa 0,0 l/m 0 min 0 min 0,0 UV-I 0 W/m 15,4 km/h (3 Bft)
01.02.2014 23:22 4,7 C 2,8 C 90 % 1005,1 hPa 0,0 l/m 0 min 0 min 0,0 UV-I 0 W/m 12,9 km/h (3 Bft)
01.02.2014 23:24 4,7 C 2,8 C 90 % 1005,1 hPa 0,0 l/m 0 min 0 min 0,0 UV-I 0 W/m 5,1 km/h (1 Bft)
01.02.2014 23:26 4,7 C 2,8 C 89 % 1005,1 hPa 0,0 l/m 0 min 0 min 0,0 UV-I 0 W/m 2,6 km/h (1 Bft)
01.02.2014 23:28 4,7 C 2,8 C 89 % 1005,1 hPa 0,0 l/m 0 min 0 min 0,0 UV-I 0 W/m 10,3 km/h (2 Bft)
01.02.2014 23:30 4,6 C 2,8 C 89 % 1005,2 hPa 0,0 l/m 0 min 0 min 0,0 UV-I 0 W/m 7,7 km/h (2 Bft)
01.02.2014 23:32 4,6 C 2,8 C 89 % 1005,2 hPa 0,0 l/m 0 min 0 min 0,0 UV-I 0 W/m 10,3 km/h (2 Bft)
01.02.2014 23:34 4,6 C 2,8 C 89 % 1005,2 hPa 0,0 l/m 0 min 0 min 0,0 UV-I 0 W/m 10,3 km/h (2 Bft)
01.02.2014 23:36 4,6 C 2,8 C 89 % 1005,2 hPa 0,0 l/m 0 min 0 min 0,0 UV-I 0 W/m 12,9 km/h (3 Bft)
01.02.2014 23:38 4,6 C 2,8 C 89 % 1005,2 hPa 0,0 l/m 0 min 0 min 0,0 UV-I 0 W/m 7,7 km/h (2 Bft)
01.02.2014 23:40 4,6 C 2,8 C 89 % 1005,2 hPa 0,0 l/m 0 min 0 min 0,0 UV-I 0 W/m 7,7 km/h (2 Bft)
01.02.2014 23:42 4,6 C 2,8 C 89 % 1005,3 hPa 0,0 l/m 0 min 0 min 0,0 UV-I 0 W/m 5,1 km/h (1 Bft)
01.02.2014 23:44 4,6 C 2,8 C 89 % 1005,3 hPa 0,0 l/m 0 min 0 min 0,0 UV-I 0 W/m 7,7 km/h (2 Bft)
01.02.2014 23:46 4,6 C 2,8 C 89 % 1005,3 hPa 0,0 l/m 0 min 0 min 0,0 UV-I 0 W/m 15,4 km/h (3 Bft)
01.02.2014 23:48 4,6 C 2,8 C 89 % 1005,3 hPa 0,0 l/m 0 min 0 min 0,0 UV-I 0 W/m 15,4 km/h (3 Bft)
01.02.2014 23:50 4,6 C 2,8 C 89 % 1005,4 hPa 0,0 l/m 0 min 0 min 0,0 UV-I 0 W/m 12,9 km/h (3 Bft)
01.02.2014 23:52 4,6 C 2,8 C 89 % 1005,4 hPa 0,0 l/m 0 min 0 min 0,0 UV-I 0 W/m 7,7 km/h (2 Bft)
01.02.2014 23:54 4,7 C 2,8 C 88 % 1005,4 hPa 0,0 l/m 0 min 0 min 0,0 UV-I 0 W/m 5,1 km/h (1 Bft)
01.02.2014 23:56 4,7 C 2,8 C 88 % 1005,4 hPa 0,0 l/m 0 min 0 min 0,0 UV-I 0 W/m 2,6 km/h (1 Bft)
01.02.2014 23:58 4,7 C 2,8 C 88 % 1005,4 hPa 0,0 l/m 0 min 0 min 0,0 UV-I 0 W/m 20,6 km/h (4 Bft)
_ Min-Zeit 00:02 00:00 07:06 07:12 - - - - - 13:44
Minimum _ 3,7 C 2,2 C 78 % 993,8 hPa - - - - - 0,0 km/h (0 Bft)
_ Max-Zeit 15:56 14:44 14:12 23:50 07:50 00:00 04:32 00:00 13:06 05:32
Maximum _ 7,3 C 5,6 C 96 % 1005,4 hPa 0,2 l/m 0 min 2 min 0,0 UV-I 72 W/m 46,3 km/h
S-SO (6 Bft)
Durchschnitt _ 5,6 C 3,7 C 88 % 998,9 hPa #3,0 l/m #0 min. #6:38 h 0,0 UV-I 33 W/m 16,4 km/h (3 Bft)
© 2014 W. Hausmann